GFSNE_2pvu_pres_003.txt.gz
Presure
192 176 194 157 139 205 212 210 200 167 199 198 225 218 159 157 159 155 157 164 192 205 190 209 169 197 184 181 182 182 183 179 195 192 178 197 220 194
148 135 152 152 146 241 212 168 174 169 231 204 141 147 201 231 210 183 174 203 207 195 186 178 185 184 186 189 186 186 191 199 190 190 204 213 213 198
165 179 208 161 161 200 159 151 154 178 173 187 161 160 176 239 163 195 256 257 226 205 210 208 196 193 200 171 175 186 178 196 218 224 213 225 216 265
135 169 139 141 158 264 230 300 165 168 203 275 270 161 175 239 216 319 177 250 178 259 190 206 191 177 199 196 206 203 185 224 250 244 230 202 275 266
269 146 158 249 181 259 182 187 434 427 417 395 370 352 302 388 310 269 289 222 358 326 236 333 245 249 268 255 238 207 232 236 254 217 229 234 244 218
142 195 187 244 424 421 264 383 420 375 364 364 357 351 347 335 381 384 371 362 343 343 344 342 328 282 269 308 245 235 234 235 273 265 258 213 259 242
353 412 400 394 394 376 396 402 409 414 348 337 340 374 400 399 400 380 360 339 351 320 347 242 353 346 340 339 319 284 220 274 260 247 235 256 250 243
404 402 397 392 392 393 394 395 404 406 409 412 414 414 411 407 357 345 353 362 348 368 362 356 356 203 206 341 207 207 279 271 269 245 276 255 245 236
392 390 333 378 379 383 386 392 395 379 384 385 387 328 328 376 366 335 311 329 331 341 309 312 321 289 341 346 298 258 277 264 250 248 248 242 257 249
397 395 379 382 384 334 365 346 320 315 316 316 324 324 316 313 309 315 391 385 384 327 364 359 378 371 277 338 302 289 263 260 249 260 260 252 243 234
389 389 386 318 296 291 303 386 388 390 434 440 401 404 403 390 379 378 375 370 369 368 361 360 371 388 346 334 303 296 272 256 262 255 246 237 238 242
372 366 361 365 374 385 384 377 374 375 360 385 278 385 388 383 382 378 379 381 371 359 341 349 355 351 340 331 295 293 286 263 253 247 244 248 238 234
441 440 433 371 364 368 371 369 367 374 347 358 367 374 378 377 385 347 302 375 372 341 307 347 344 317 314 316 299 283 274 255 265 248 254 240 242 254
523 514 504 497 450 361 358 356 351 354 352 355 354 367 424 442 437 359 334 381 358 322 328 322 319 331 311 301 311 312 284 271 263 245 239 246 243 237
475 469 468 468 472 359 349 345 342 338 344 351 333 330 363 365 333 350 372 341 279 321 315 309 292 287 276 271 276 281 264 249 247 251 262 249 247 237
440 439 438 442 447 367 343 337 331 328 336 342 316 273 336 305 341 354 329 319 313 289 300 311 264 311 293 291 278 273 267 258 258 260 263 252 243 247
408 410 416 424 431 422 343 333 327 324 330 327 295 345 301 292 338 323 330 325 315 306 295 290 281 267 277 271 265 263 258 238 241 241 244 244 234 230
390 401 410 419 428 341 332 331 316 321 325 355 329 304 333 330 313 309 303 303 290 283 285 251 259 262 258 251 251 243 239 235 238 237 231 240 248 250
382 391 404 416 329 331 327 329 314 326 384 317 316 329 316 299 310 300 298 287 272 276 253 258 259 252 245 246 250 250 249 249 248 249 255 246 244 247
376 390 407 417 319 320 331 309 326 347 312 291 281 315 280 308 290 257 287 277 266 267 265 254 241 254 255 253 255 253 256 253 253 261 259 249 246 250
369 399 416 524 314 331 313 327 374 311 287 276 276 264 304 296 269 277 273 259 268 249 250 257 259 249 258 255 262 256 267 259 243 241 249 253 252 251
375 414 406 344 323 311 369 349 317 298 276 270 305 292 252 273 268 263 262 248 252 247 247 264 265 261 259 263 256 254 249 244 258 258 256 266 275 285
393 411 318 318 307 345 320 333 325 268 313 284 276 277 271 262 260 253 247 254 239 248 247 250 250 256 259 251 256 259 259 253 269 275 284 295 353 383

GFSNE_2pvu_pres_006.txt.gz
Presure
214 214 154 138 228 201 207 162 137 180 214 142 158 261 151 148 154 150 229 223 234 252 246 240 231 227 183 224 198 207 193 214 198 186 182 176 175 189
124 134 137 176 159 138 185 127 213 162 183 236 152 142 155 155 166 241 239 309 230 234 229 232 220 245 237 248 228 222 228 176 204 188 209 179 195 192
167 204 144 143 151 205 205 157 163 162 166 167 360 275 362 362 425 437 397 375 388 388 344 247 321 183 315 308 241 246 264 245 263 258 191 216 182 193
132 138 139 151 145 150 159 167 393 411 425 434 431 425 421 201 426 434 430 427 407 383 383 380 367 366 325 351 350 255 290 271 229 276 238 259 246 246
275 166 150 293 429 416 408 408 406 407 406 409 420 413 411 405 408 409 424 368 351 341 360 326 326 364 361 328 285 198 330 260 263 254 274 251 288 272
245 331 427 418 409 378 393 392 392 326 324 394 399 401 399 397 401 406 404 405 334 325 321 319 320 334 359 347 344 335 338 330 327 293 258 255 259 261
445 435 422 407 394 391 389 385 384 388 385 386 392 396 396 381 383 393 409 403 408 412 407 408 373 387 357 343 349 337 330 329 264 308 292 207 222 269
421 409 399 397 393 386 383 384 391 389 389 390 400 398 289 397 354 303 311 322 402 402 394 398 376 356 340 335 330 333 325 356 328 298 278 269 271 240
397 388 384 377 376 365 328 379 382 378 373 391 321 298 320 394 394 380 325 320 306 305 363 373 370 340 318 339 351 308 348 352 322 315 274 281 290 259
374 373 376 191 203 376 381 382 374 366 360 361 370 392 388 380 378 406 511 324 319 317 314 305 371 376 340 299 343 304 324 286 329 308 301 279 274 266
489 231 191 197 506 516 521 524 528 529 427 360 364 382 384 368 365 404 445 411 404 382 375 382 357 376 370 364 371 377 290 304 286 327 294 274 263 269
183 184 217 472 493 491 493 498 505 503 504 365 370 370 363 370 354 367 321 392 392 385 363 373 359 356 362 360 369 366 360 364 272 292 289 286 258 252
394 392 441 447 456 460 464 472 480 482 459 361 357 354 356 362 368 400 430 380 393 361 317 375 369 353 345 341 346 349 381 332 316 287 280 275 264 252
378 383 411 416 426 433 440 448 453 460 357 351 346 341 350 357 351 386 441 454 395 411 298 367 368 358 299 353 340 349 322 308 303 297 275 276 268 261
374 369 392 399 406 416 427 436 441 351 343 338 333 336 346 338 361 368 362 349 348 366 364 349 337 328 329 340 344 323 313 305 300 278 275 266 271 241
366 362 373 387 399 413 425 428 345 336 332 329 322 333 330 361 301 328 335 358 344 343 335 328 300 321 345 314 306 298 286 306 303 290 262 254 255 262
367 362 367 377 397 413 420 358 337 328 326 316 326 324 348 292 267 326 342 330 334 319 309 299 300 298 290 300 282 281 273 272 276 278 274 269 259 256
369 361 362 383 406 419 346 332 321 322 313 323 322 334 325 309 306 332 346 327 311 305 300 295 297 292 298 288 283 283 289 289 270 264 263 261 253 246
353 357 366 397 423 322 328 320 326 307 320 337 319 311 304 329 323 328 314 301 300 287 290 285 283 284 278 257 272 267 255 259 251 249 248 247 249 250
342 359 382 427 313 320 319 322 311 349 325 311 316 315 325 310 299 300 300 296 285 284 246 279 256 254 262 255 257 258 250 251 247 245 239 237 241 245
337 375 423 431 309 325 312 346 365 314 295 287 304 318 286 298 285 286 288 281 260 270 270 262 262 257 260 260 259 258 260 259 257 252 252 251 257 259
367 417 420 307 321 309 357 348 300 287 276 294 276 278 283 283 276 274 268 266 264 258 270 270 255 254 249 248 250 250 255 259 263 261 256 254 253 248
410 417 313 314 353 347 347 337 290 277 290 289 296 279 272 280 271 270 262 261 259 269 267 260 259 259 257 251 253 250 250 249 249 246 250 255 263 269

GFSNE_2pvu_pres_009.txt.gz
Presure
187 164 173 218 142 223 178 229 232 254 257 205 233 233 246 258 297 189 294 292 291 194 284 289 292 302 314 327 335 314 222 224 279 189 235 246 174 223
179 210 142 228 183 216 237 213 262 254 270 253 385 455 445 443 437 436 430 431 343 452 418 408 410 407 393 352 342 273 326 313 269 305 225 218 256 227
208 189 205 188 241 246 256 314 347 434 412 386 445 441 430 419 411 411 415 409 411 418 412 424 399 371 368 383 332 326 324 336 328 320 305 279 266 300
214 208 217 241 292 247 250 445 439 434 429 446 439 426 414 405 402 398 394 394 398 329 403 410 428 410 395 355 363 343 336 298 321 310 309 273 277 279
236 262 209 240 452 443 434 412 416 412 412 417 418 422 415 406 401 397 389 385 386 386 383 396 391 404 405 372 308 352 392 342 334 330 304 278 264 291
264 237 384 452 436 419 404 397 389 386 382 381 382 387 400 402 405 405 393 389 397 394 384 378 387 400 417 410 347 342 311 360 328 314 292 289 293 265
313 458 441 417 401 394 399 481 511 516 537 238 198 263 379 375 384 392 397 398 391 393 383 361 382 395 418 400 382 322 337 330 332 343 311 330 267 275
454 435 412 396 393 453 448 441 425 191 188 191 241 465 571 390 379 374 382 391 310 292 395 358 320 303 404 430 337 325 319 351 319 320 354 348 288 289
433 409 391 447 430 418 418 401 446 450 467 501 520 525 533 532 538 401 368 333 300 286 289 409 314 304 312 412 397 387 335 348 347 337 326 350 325 290
407 389 442 441 414 394 402 399 418 434 458 469 479 487 497 503 514 459 362 374 380 371 378 489 440 317 307 310 408 411 382 365 372 340 341 342 327 304
389 383 442 431 404 397 389 388 407 418 429 447 458 472 480 487 501 368 373 376 362 361 377 505 486 320 309 306 302 389 332 328 338 331 317 338 320 313
385 443 391 417 405 393 381 384 405 416 422 428 442 458 478 486 365 367 361 363 351 353 421 472 402 394 392 320 318 303 364 300 321 299 289 334 328 344
403 431 430 410 389 386 372 383 407 422 425 435 452 432 361 357 355 348 352 356 352 463 389 295 347 390 378 379 381 348 380 366 333 313 328 291 332 317
425 389 381 408 367 384 368 391 413 425 431 450 358 352 347 340 338 344 347 351 437 431 387 384 385 341 375 366 368 370 370 367 364 352 343 292 276 340
399 372 423 353 378 368 374 406 427 430 430 345 338 335 328 329 339 337 339 454 470 494 382 393 363 297 372 362 350 344 339 353 354 353 352 326 302 281
409 368 403 326 359 372 398 433 438 462 332 328 326 318 326 331 323 352 345 331 332 343 349 354 325 362 351 338 316 310 330 366 370 368 339 305 312 300
450 422 384 362 349 387 429 333 337 329 324 322 314 325 323 343 331 313 329 344 341 339 340 339 335 333 339 340 351 353 322 321 315 303 286 288 292 282
436 452 426 349 380 432 318 328 321 318 309 317 322 330 330 309 302 319 323 321 323 313 312 308 308 325 320 309 297 291 289 293 299 296 287 295 266 287
449 468 436 376 437 315 323 319 321 305 321 330 321 306 305 291 323 327 313 303 307 301 298 301 303 297 296 288 260 287 277 275 278 276 260 266 281 267
425 417 384 429 366 309 323 312 338 329 315 306 306 332 312 310 309 294 287 285 294 290 291 286 283 291 293 285 279 261 272 275 280 274 277 268 267 264
383 384 419 345 305 322 329 360 315 299 292 300 318 295 297 285 294 286 292 269 283 285 284 278 280 246 255 266 265 258 261 261 256 255 251 252 244 242
384 392 319 321 320 353 338 307 287 282 276 294 295 282 279 297 278 278 279 262 270 261 261 256 259 255 253 250 262 266 259 244 252 253 253 252 251 248
366 319 337 350 340 328 326 328 315 301 300 301 279 295 287 280 282 271 281 272 265 263 259 265 271 264 255 256 252 250 256 252 252 254 255 242 242 242

GFSNE_2pvu_pres_012.txt.gz
Presure
149 138 197 172 163 205 171 217 211 210 241 234 245 253 287 66 473 472 483 474 466 449 441 230 434 420 419 428 342 324 296 270 276 269 267 267 229 233
165 159 125 194 183 215 221 193 207 239 252 233 494 314 222 449 444 443 442 460 451 436 428 424 425 422 418 413 413 398 357 314 300 279 297 290 285 285
137 225 217 202 216 211 225 229 244 240 394 455 443 426 178 407 407 403 397 394 404 428 421 413 408 406 404 403 404 416 427 374 366 361 329 329 293 317
203 207 183 213 222 226 231 229 242 452 434 423 414 444 469 520 560 496 394 378 377 378 407 402 396 392 389 395 407 406 425 396 391 388 364 356 318 323
125 217 213 229 235 254 238 275 445 424 405 465 450 437 428 424 433 442 510 501 373 191 364 385 287 385 380 382 391 396 389 392 407 366 347 319 333 309
223 227 229 231 238 238 385 434 416 405 458 439 421 411 404 428 462 497 380 187 186 198 336 372 392 390 382 377 374 381 388 430 400 380 395 372 341 311
216 242 240 241 381 447 428 410 404 451 445 418 413 398 401 440 463 496 515 452 508 529 399 363 378 396 391 388 381 376 389 403 423 378 355 404 342 329
228 265 345 393 382 424 405 397 448 444 421 409 394 391 413 431 450 477 491 508 530 490 549 379 368 378 385 391 392 395 381 400 408 414 372 350 389 333
293 343 385 429 422 402 395 448 449 420 399 388 387 395 424 431 444 464 474 484 500 509 524 544 365 377 385 394 395 388 379 395 406 391 375 348 361 293
394 383 395 421 398 390 445 420 411 402 364 377 389 419 431 433 444 459 470 478 495 516 545 366 365 371 378 309 293 334 355 311 408 410 362 337 330 331
383 370 418 395 383 437 428 404 436 348 370 379 406 428 438 440 459 472 501 530 499 401 366 360 370 372 372 368 388 409 319 308 405 411 340 356 325 353
368 421 395 380 388 435 449 438 373 363 376 394 416 431 444 366 359 354 354 351 353 361 365 360 357 360 367 375 297 422 320 308 307 414 319 307 320 321
421 399 380 393 427 421 439 408 360 377 398 427 434 391 349 345 344 341 342 343 345 357 359 352 351 384 480 474 471 403 314 307 304 408 393 354 317 296
406 377 372 421 427 443 469 382 366 400 436 508 344 337 332 331 329 331 335 342 348 354 345 405 416 377 395 329 280 387 387 316 300 335 377 376 369 332
381 367 421 405 423 465 448 359 404 346 445 334 327 327 319 320 329 335 333 335 424 422 425 428 381 373 385 395 388 377 382 391 305 351 367 323 360 337
367 428 399 471 461 434 388 413 322 336 330 323 323 313 320 327 322 342 336 331 335 352 371 444 400 365 340 310 366 370 371 375 375 389 351 293 331 314
438 400 425 414 424 373 427 339 329 324 318 309 313 319 323 328 314 329 344 346 348 351 356 351 354 358 320 369 364 350 348 355 358 363 368 360 284 316
409 413 413 438 388 493 321 324 323 316 307 318 328 320 311 302 334 316 320 306 327 324 322 323 326 330 340 343 336 328 335 331 339 349 358 371 317 344
398 412 390 409 379 312 314 321 305 410 321 311 305 297 292 317 321 323 309 300 311 306 309 334 327 337 353 360 332 327 332 333 336 339 339 341 326 313
410 402 415 355 308 313 328 374 317 305 312 333 326 316 316 310 299 299 294 296 305 299 297 297 296 302 301 295 294 293 302 303 302 294 286 295 301 278
397 409 342 304 357 341 352 307 296 294 288 304 305 294 291 293 286 287 290 273 288 291 288 290 292 287 286 284 276 274 269 276 277 279 280 277 278 291
417 330 307 343 339 337 335 295 290 291 300 297 296 284 285 287 276 285 282 261 267 276 259 256 260 284 261 282 279 275 269 264 272 273 267 264 265 260
321 321 338 329 326 329 314 300 298 295 267 291 277 283 283 275 272 272 273 268 267 260 261 268 262 258 251 268 267 264 264 249 260 253 256 259 253 265

GFSNE_2pvu_pres_015.txt.gz
Presure
142 136 153 217 129 173 220 214 174 235 208 212 175 80 231 243 244 157 258 465 456 451 443 436 434 436 435 455 469 466 465 452 416 331 310 312 295 284
140 195 210 162 235 211 148 227 221 208 211 235 228 142 247 488 66 325 434 423 417 416 417 411 407 401 408 417 449 449 451 460 449 387 358 336 317 312
179 211 135 148 153 134 217 214 225 232 244 260 271 307 332 445 429 417 441 458 451 445 447 457 542 425 388 389 398 428 434 437 442 437 409 357 317 312
216 202 214 120 205 193 227 230 231 242 255 473 409 446 426 413 428 462 465 443 434 425 414 419 426 448 473 381 375 393 421 421 428 428 415 346 346 322
215 153 139 194 215 214 242 240 248 311 428 451 436 416 407 458 462 449 435 422 406 393 405 459 478 510 520 440 380 236 236 408 410 408 418 401 356 336
178 205 193 214 230 244 245 251 475 399 435 425 405 410 446 448 434 418 405 385 389 421 437 453 488 543 530 503 249 192 200 399 400 407 405 410 387 378
202 206 223 239 244 253 338 466 394 435 416 396 405 447 418 431 401 389 383 407 430 425 439 468 495 519 549 574 429 378 326 399 394 397 405 415 390 383
220 234 235 241 253 460 458 383 435 411 388 446 474 425 444 387 382 389 417 432 440 442 469 489 479 512 535 462 523 390 367 405 395 388 391 395 382 407
232 241 249 307 456 450 378 431 410 380 412 431 444 425 396 371 408 431 432 447 472 493 499 490 490 508 523 444 585 399 371 412 397 383 379 384 390 414
239 255 427 461 410 382 429 410 381 409 450 447 426 396 378 417 440 427 481 505 521 523 505 486 478 489 502 524 546 367 374 388 399 392 387 386 395 400
276 439 460 369 368 426 407 385 432 424 431 475 394 385 432 449 363 353 355 356 357 365 391 465 472 492 511 522 372 371 377 380 381 387 384 396 391 392
463 438 363 427 419 398 378 426 452 483 463 373 413 434 422 347 344 344 344 347 351 355 351 350 355 357 360 362 363 369 374 304 287 279 381 372 382 385
378 353 426 412 394 373 402 437 438 438 425 473 340 342 332 333 334 331 333 338 339 338 343 349 352 357 362 365 363 363 366 374 324 394 326 333 295 398
407 425 408 389 369 425 427 434 417 439 467 339 332 326 326 320 320 328 334 337 343 343 349 349 352 353 352 353 414 363 365 404 400 323 307 303 392 401
421 405 383 366 429 422 443 404 428 326 332 326 322 319 314 325 327 341 343 345 358 465 460 432 379 375 380 384 396 407 404 384 377 319 304 301 399 410
400 377 387 434 418 439 413 398 310 327 321 318 311 317 323 328 322 320 341 349 341 333 356 428 364 387 374 387 386 302 300 310 351 303 303 302 390 390
376 486 442 412 433 420 371 307 322 321 312 314 326 322 319 309 346 317 343 344 337 337 342 348 353 350 341 316 356 369 371 370 380 345 304 298 363 383
478 451 410 407 424 347 306 321 315 388 341 316 312 302 316 301 315 324 316 327 318 322 328 331 342 353 349 295 332 353 356 362 363 367 356 297 315 364
437 411 392 382 333 306 372 373 324 306 305 299 307 323 315 316 304 304 301 302 304 329 323 327 327 324 330 324 326 337 342 350 353 359 365 289 290 303
521 391 405 332 323 360 360 308 303 311 315 320 314 313 305 298 292 293 295 300 296 305 299 321 324 322 323 337 346 344 324 310 329 343 351 356 363 324
402 424 330 346 345 347 314 297 290 290 288 304 298 293 289 284 289 293 275 283 291 284 285 289 295 296 300 299 300 306 312 321 325 338 350 346 348 356
363 334 342 340 333 323 301 303 305 299 299 300 290 285 290 286 284 287 276 275 282 274 257 271 267 297 290 277 282 284 297 295 292 291 299 300 302 306
329 340 332 335 322 308 302 300 301 304 286 287 286 283 284 277 274 277 275 275 275 267 261 273 264 261 261 271 283 281 275 275 284 285 284 285 287 290

GFSNE_2pvu_pres_018.txt.gz
Presure
238 234 229 148 224 219 163 182 247 241 220 212 129 122 66 218 228 236 242 252 263 399 455 460 453 450 445 443 439 434 439 441 462 478 515 495 415 366
229 212 149 201 144 196 233 226 98 189 181 104 207 128 219 232 242 208 330 472 458 445 432 424 419 436 444 440 435 434 465 409 406 425 466 476 390 427
171 211 155 208 226 221 217 208 223 214 221 224 228 241 156 129 62 175 457 448 433 417 406 440 462 460 461 453 447 442 444 478 481 399 402 484 472 452
151 167 218 220 219 107 198 215 211 223 232 250 269 366 487 412 401 446 429 414 477 458 442 441 435 433 437 436 429 420 419 419 459 463 397 390 478 478
246 217 212 202 214 211 214 219 230 248 262 330 479 404 394 440 427 410 480 467 453 449 440 415 402 401 399 397 398 397 402 406 413 472 439 393 467 454
126 212 197 212 220 216 227 242 258 292 470 405 389 431 425 408 405 463 470 445 436 399 376 389 412 420 434 446 448 449 455 471 477 416 455 387 380 444
214 211 213 215 226 236 252 269 392 385 380 435 440 417 394 441 441 474 524 409 374 387 423 438 452 459 471 515 488 473 492 527 576 439 457 352 298 397
210 211 216 229 246 262 402 382 370 449 435 422 402 448 475 499 479 469 388 409 440 437 476 472 502 526 534 493 485 488 500 525 556 554 459 389 192 425
205 222 237 252 335 484 381 446 446 423 401 387 438 452 462 441 393 462 479 497 381 369 357 362 506 484 484 487 488 494 510 536 549 572 457 379 366 204
232 242 278 485 473 449 453 445 425 393 376 428 441 436 443 512 518 352 355 348 353 350 350 357 359 461 463 462 467 491 508 532 567 588 450 370 389 405
246 318 473 466 450 445 437 422 390 399 423 441 463 451 462 350 359 337 337 336 334 335 338 347 354 355 431 450 498 520 532 535 573 605 373 366 396 391
332 468 453 442 438 424 404 385 479 427 441 424 428 333 367 331 330 326 327 331 334 338 340 343 345 354 349 352 364 478 493 513 468 362 364 399 395 392
467 455 443 429 410 388 465 465 427 433 418 399 322 331 322 320 320 330 335 335 360 375 343 349 351 350 350 352 349 354 359 362 367 374 382 395 405 403
448 435 415 395 463 486 446 424 410 410 353 325 323 317 312 320 328 327 326 326 328 425 469 426 395 344 341 346 350 357 364 365 366 371 371 377 378 381
421 396 437 492 470 422 428 399 401 327 327 319 311 313 319 322 322 332 337 345 351 335 394 365 372 369 371 355 352 350 355 341 303 288 283 277 377 365
407 503 476 450 414 431 402 371 317 323 316 316 328 316 323 342 339 344 331 332 337 342 342 368 374 357 380 383 425 420 372 366 384 381 388 371 320 357
495 460 434 413 407 399 352 315 332 334 353 311 307 300 315 323 328 318 320 318 328 337 339 351 337 352 380 379 380 380 377 376 373 366 343 310 303 295
448 528 438 393 395 334 332 390 407 308 304 301 314 323 317 310 304 305 304 305 322 333 327 334 350 358 327 311 374 372 380 358 264 357 308 298 294 292
424 411 400 362 320 365 374 306 301 315 316 323 317 315 299 300 290 301 302 300 303 326 338 315 327 328 339 348 355 364 367 377 360 354 303 297 287 380
394 441 353 313 346 367 305 292 279 316 305 309 310 298 294 285 287 286 288 318 286 286 283 318 336 340 330 314 333 338 351 361 377 351 313 293 286 378
367 343 310 340 347 334 294 307 314 302 298 301 297 289 290 286 288 277 282 282 274 279 274 284 276 302 304 317 344 310 319 336 352 363 345 324 284 350
340 337 338 335 328 318 314 307 307 309 300 297 291 295 291 291 292 287 274 277 274 271 273 274 293 274 286 296 296 315 337 339 323 328 360 348 332 331
329 331 333 316 294 299 292 286 285 279 278 277 278 286 288 287 280 275 282 273 271 276 263 274 267 271 275 272 287 282 285 299 301 313 334 338 347 325

GFSNE_2pvu_pres_021.txt.gz
Presure
204 151 161 230 249 250 246 172 244 249 245 246 210 202 111 211 94 224 219 224 225 233 236 239 75 73 163 475 478 475 477 478 474 474 475 476 503 500
209 230 243 247 170 158 197 246 249 239 128 152 213 138 116 208 222 229 239 250 293 438 414 259 112 427 457 455 453 449 440 433 433 436 439 446 454 472
240 253 237 124 140 198 240 187 197 235 224 215 213 217 207 227 238 378 66 65 411 439 325 444 434 425 425 471 460 473 472 476 481 483 481 489 425 433
249 141 127 142 254 230 221 227 215 215 218 230 228 238 282 504 486 454 445 455 442 430 420 450 446 473 452 454 459 457 454 444 441 446 462 465 467 490
243 137 233 215 225 133 203 213 212 223 233 245 355 500 488 477 470 456 436 414 424 490 458 449 475 499 449 438 432 414 397 388 393 407 430 436 445 458
176 219 219 221 212 204 211 221 231 246 353 488 484 477 468 451 436 414 455 454 458 462 471 463 465 441 416 408 416 430 441 439 430 418 400 398 421 431
216 196 212 206 203 213 230 247 437 487 479 471 466 454 432 410 448 461 451 463 520 514 470 439 440 446 455 472 455 539 543 528 514 456 444 425 408 410
211 202 188 212 228 239 265 485 473 463 456 443 432 413 398 457 465 503 549 514 365 362 362 362 365 361 364 366 372 493 494 507 514 509 520 461 448 424
203 206 224 231 272 489 479 471 454 427 411 401 428 480 456 456 446 426 343 355 346 344 341 348 350 352 359 358 365 461 468 489 496 487 509 510 502 474
220 228 245 392 478 472 460 438 408 415 516 487 456 446 440 430 340 343 333 330 330 331 331 342 342 345 349 354 360 443 467 474 510 497 499 529 549 572
233 306 467 472 461 438 423 498 521 493 450 431 467 427 356 326 333 326 326 328 334 342 339 343 347 347 347 353 355 376 468 481 476 440 532 537 556 584
335 400 462 445 443 532 516 500 471 429 447 408 406 333 333 324 322 327 337 335 334 336 356 424 421 344 350 355 351 356 478 500 530 565 574 571 582 518
473 454 448 516 511 495 477 436 433 410 410 346 324 327 320 320 327 331 342 350 357 366 347 422 433 376 349 352 358 350 352 368 473 516 536 584 539 455
443 469 506 496 477 455 422 434 402 389 329 323 319 315 323 321 347 343 336 338 339 346 349 391 370 380 383 342 354 356 357 362 362 367 369 397 370 364
491 500 476 456 519 421 409 386 345 319 330 322 326 317 318 315 329 327 324 325 341 342 350 415 381 371 377 432 341 351 358 356 369 372 367 393 392 413
498 459 445 451 433 387 378 337 414 405 328 313 305 305 322 324 313 309 316 322 336 336 350 346 357 380 385 447 425 346 347 361 356 361 368 374 389 402
455 432 425 407 377 366 321 410 369 312 306 307 315 316 311 311 313 307 306 306 334 325 339 361 369 371 378 402 406 394 355 355 328 291 342 373 369 368
428 408 388 367 352 326 386 316 305 311 319 318 322 306 296 296 289 299 304 306 319 343 318 335 347 362 322 369 366 371 376 371 370 378 340 336 336 358
414 379 356 343 360 379 315 298 291 317 310 316 307 290 290 284 290 282 299 285 286 293 340 333 320 341 351 357 380 370 361 359 355 347 314 308 301 305
369 346 344 345 357 329 297 306 319 308 298 298 297 292 290 283 286 286 288 285 292 285 282 310 328 337 314 349 361 366 369 387 295 300 308 296 290 291
343 339 338 336 324 320 315 306 304 303 303 298 296 294 294 289 284 283 279 273 279 285 282 274 292 315 343 297 342 360 352 357 372 299 291 292 310 340
336 335 316 296 298 289 288 285 283 284 276 275 274 274 279 289 294 287 281 281 271 274 270 283 269 270 305 329 328 328 365 346 350 348 292 292 340 320
319 299 299 290 287 296 283 284 291 258 264 278 282 277 273 265 277 291 278 278 275 277 263 273 281 275 271 297 307 292 335 350 341 345 357 285 342 306

GFSNE_2pvu_pres_027.txt.gz
Presure
189 186 216 271 267 247 234 219 273 271 258 247 300 266 189 231 137 167 229 228 228 223 226 227 220 217 229 237 234 236 240 243 242 240 239 237 233 206
208 214 271 249 237 217 237 259 210 257 260 156 187 153 159 69 92 226 215 235 235 239 143 247 251 254 256 256 258 356 192 364 274 471 504 418 308 301
226 266 230 183 249 234 239 282 234 223 195 222 158 218 230 228 233 238 254 267 132 460 488 478 474 472 473 473 395 472 469 465 465 462 459 466 468 467
151 242 180 264 255 244 237 224 209 152 217 223 241 237 240 264 498 501 600 589 577 578 568 563 447 437 431 421 86 75 421 492 495 492 486 482 479 519
221 242 261 241 262 168 174 165 210 227 240 235 284 335 551 540 553 562 555 547 535 520 507 502 495 487 476 479 159 473 557 574 581 570 548 502 461 500
265 258 258 220 217 186 218 227 235 232 301 330 549 538 540 533 523 514 496 469 464 451 455 491 491 453 453 452 431 410 368 365 363 374 376 492 476 428
230 240 216 213 207 225 235 240 274 327 409 526 529 520 507 483 456 444 436 429 424 429 445 441 382 357 357 355 350 346 346 347 351 355 362 373 378 380
214 214 193 218 230 233 254 320 317 488 514 513 492 479 445 432 424 428 439 448 359 362 337 336 342 334 338 337 339 345 347 346 349 349 351 356 368 375
211 210 224 230 234 274 317 319 521 506 480 478 445 427 425 434 412 352 340 337 336 332 321 333 357 355 370 365 350 341 432 374 355 360 356 366 370 372
215 229 226 251 310 314 340 527 498 457 470 439 415 419 411 343 328 325 318 320 358 353 343 347 347 354 366 366 419 439 458 367 351 355 358 356 363 441
225 231 285 308 311 388 524 497 446 443 417 404 422 343 327 324 318 332 332 331 339 351 350 350 349 355 368 418 397 417 487 351 356 352 360 388 448 471
254 304 301 316 371 516 484 442 419 395 387 358 333 322 340 335 332 329 324 318 328 342 347 342 356 350 382 376 372 451 344 349 348 357 356 432 441 481
300 299 312 516 511 472 432 403 385 376 351 322 348 323 308 318 329 321 330 315 323 346 331 344 367 379 383 381 426 336 347 352 358 357 378 424 447 452
296 312 403 506 465 422 388 375 369 399 364 346 316 305 316 317 317 311 311 318 346 326 328 349 378 379 430 445 433 340 356 352 362 356 365 438 462 464
313 522 495 462 414 382 365 366 390 413 332 302 325 313 311 310 301 297 315 304 290 344 328 347 380 378 408 401 368 340 345 355 360 379 356 440 468 495
554 489 457 415 381 361 366 403 392 313 303 308 316 315 309 303 301 294 301 294 297 300 346 328 369 367 399 382 338 342 348 350 356 388 353 379 435 466
500 454 416 378 363 360 341 334 325 323 317 319 310 313 304 298 295 298 285 292 293 292 310 338 354 378 365 374 349 342 345 332 353 386 392 353 393 406
455 423 373 360 345 333 318 312 309 303 301 292 287 299 302 300 297 294 297 290 287 269 302 330 320 376 363 348 351 367 358 294 356 377 379 380 346 363
425 374 352 340 319 305 303 290 295 295 281 278 279 271 264 264 267 280 293 295 288 283 288 308 338 344 368 358 335 336 351 289 284 358 376 371 374 353
372 349 334 312 301 299 288 300 293 279 270 269 267 261 261 268 257 267 275 286 290 278 286 289 314 327 358 364 347 341 340 343 341 330 363 367 365 371
348 327 308 301 291 293 291 290 292 317 312 354 362 310 239 324 342 289 269 273 283 285 272 289 276 334 341 347 376 344 313 315 306 340 354 365 362 360
322 309 299 291 292 291 319 349 315 331 341 355 349 349 363 357 400 369 290 276 271 283 279 287 288 301 338 353 359 364 304 290 291 305 371 349 342 360
304 299 288 293 281 339 320 330 319 331 355 365 356 344 344 377 388 398 414 287 278 275 281 275 286 298 309 350 360 325 295 286 271 286 287 361 376 351

GFSNE_2pvu_pres_030.txt.gz
Presure
186 191 185 185 198 205 216 226 271 231 254 272 275 243 260 252 201 136 158 214 214 214 219 217 226 236 238 235 232 231 230 231 228 228 229 230 228 229
182 185 193 197 208 214 235 212 245 278 279 247 248 238 221 161 205 223 116 249 262 310 363 556 565 582 594 605 598 572 519 493 496 356 347 245 239 179
192 192 201 208 217 232 218 271 272 254 240 232 205 145 230 243 249 269 351 491 557 550 537 533 432 539 544 555 563 571 579 592 599 465 463 468 477 485
199 201 210 226 257 225 274 260 220 184 220 200 222 236 251 334 339 550 550 528 510 491 484 485 484 486 486 486 494 499 503 509 510 508 512 175 422 155
201 207 235 250 269 270 232 236 213 215 228 245 253 338 329 392 546 511 490 466 459 453 461 457 466 468 203 466 458 447 447 451 457 460 468 334 504 586
214 254 221 267 247 238 212 215 224 230 248 284 335 326 533 503 469 459 448 438 440 463 425 364 360 356 357 356 356 361 362 367 371 409 416 422 455 477
254 259 182 229 223 215 215 228 240 257 299 325 358 509 478 446 430 435 457 429 363 345 333 338 337 339 341 341 342 338 339 343 345 349 353 352 353 357
267 251 226 208 212 229 234 240 273 318 335 526 487 459 425 423 456 389 345 335 324 356 330 343 348 349 358 368 370 370 369 388 360 359 362 364 357 355
222 210 208 214 226 232 245 275 333 435 503 474 437 413 442 412 342 331 334 342 349 347 336 338 351 350 362 358 363 371 369 394 444 454 457 420 384 361
205 207 213 224 233 260 306 341 524 482 458 420 400 427 360 327 351 329 313 332 337 334 323 347 351 343 354 368 363 414 387 396 497 478 410 359 351 358
199 214 223 234 268 335 350 523 471 431 401 388 401 383 360 348 318 306 326 318 326 331 354 342 332 349 377 375 385 384 385 457 384 344 356 358 356 358
210 228 246 297 336 427 518 471 416 391 378 375 433 367 346 311 312 326 314 299 308 314 335 346 339 366 383 389 398 436 405 366 340 351 350 354 365 361
225 251 326 349 560 511 467 410 385 378 395 425 366 328 307 331 324 317 302 292 306 305 302 345 340 384 397 454 443 394 354 338 350 354 368 374 360 437
256 315 337 559 508 468 410 377 371 370 344 334 320 311 327 319 317 310 301 293 302 302 305 325 335 385 398 388 377 352 341 350 352 361 401 356 419 427
318 335 525 504 469 413 378 361 350 344 345 334 324 328 321 314 311 307 300 300 297 295 293 292 333 390 378 373 359 339 360 345 357 399 382 409 401 451
486 471 505 469 417 376 360 339 330 313 309 291 292 283 281 278 305 299 299 294 298 293 285 291 327 364 365 371 359 353 352 351 355 394 355 397 389 405
473 481 469 432 374 360 344 327 302 293 294 301 285 278 279 281 276 271 273 266 290 295 288 293 316 334 378 352 355 342 352 326 364 390 357 418 371 380
497 465 430 372 354 339 319 302 292 298 293 290 292 276 274 275 272 264 262 271 269 294 289 289 292 336 365 363 345 340 339 284 363 380 398 378 418 414
483 431 366 347 335 308 294 292 299 298 322 336 328 319 357 363 346 264 249 293 272 281 292 281 284 313 344 376 342 327 330 277 358 371 388 375 382 405
423 358 340 324 304 294 294 286 350 350 346 339 328 328 332 354 362 376 370 361 297 269 289 283 274 311 342 382 336 326 325 338 352 367 378 376 362 366
351 332 315 305 298 289 273 322 299 306 374 377 352 357 360 354 349 371 363 368 306 283 281 285 281 304 340 363 355 341 302 378 349 360 369 383 371 359
325 310 303 299 291 270 300 262 387 376 368 361 355 351 349 345 339 339 361 374 320 291 275 285 280 300 335 368 342 280 287 290 340 360 362 366 370 375
308 300 297 295 276 294 312 308 369 364 392 395 387 384 380 343 336 360 381 405 353 292 274 285 279 299 330 374 345 304 280 287 288 332 356 361 360 362

GFSNE_2pvu_pres_033.txt.gz
Presure
206 195 195 196 181 187 186 174 193 197 200 211 261 246 270 277 260 240 205 203 202 214 217 246 267 359 216 344 379 389 395 400 402 308 303 224 227 230
198 192 182 188 182 176 194 199 205 215 234 250 254 273 259 183 210 217 227 244 243 301 361 375 447 548 545 538 526 520 520 531 552 571 587 602 561 401
183 187 187 177 190 195 205 203 228 263 237 268 252 231 169 222 233 239 273 145 482 533 515 497 494 491 488 481 475 476 473 475 481 490 523 560 580 582
189 174 190 194 205 203 217 238 265 283 258 234 220 217 219 236 257 321 539 504 494 472 466 475 484 449 413 398 391 392 405 476 468 457 474 492 507 565
187 196 196 207 205 229 267 195 257 235 224 219 224 227 243 288 545 505 482 450 443 462 463 372 366 361 352 350 346 350 350 350 356 368 400 450 461 475
192 203 203 222 251 241 242 239 221 209 226 225 241 265 507 516 477 445 430 450 438 375 347 339 339 337 350 356 357 365 361 352 342 351 353 360 381 433
205 208 235 276 162 245 222 209 218 228 233 245 288 400 497 441 418 415 458 355 346 350 340 347 349 344 351 359 375 364 363 367 372 372 377 368 347 356
221 238 164 252 219 213 212 227 227 236 271 320 522 482 427 408 407 408 347 372 342 349 332 338 338 352 358 351 348 353 368 373 366 370 372 372 422 362
171 191 232 216 207 211 217 227 235 286 436 506 471 420 401 393 409 370 350 332 325 337 326 322 315 318 357 353 362 393 384 379 374 423 397 429 463 416
162 216 224 207 211 219 227 255 340 525 495 465 407 395 402 451 373 346 317 307 326 323 308 317 314 317 347 379 396 421 395 387 386 397 461 450 439 434
217 209 211 212 230 231 273 452 531 488 456 398 386 419 445 381 347 314 305 318 313 311 306 302 309 317 344 399 408 478 448 426 405 385 357 341 340 348
208 209 217 228 241 285 507 521 497 450 392 372 363 348 352 326 321 319 326 313 305 304 306 303 302 295 341 396 399 422 384 363 348 343 350 355 359 363
209 220 231 247 329 498 487 499 455 390 367 355 341 336 348 334 334 337 329 317 299 303 301 301 300 297 328 386 380 361 344 338 345 351 357 400 408 382
218 233 268 409 486 523 494 451 382 367 350 336 311 304 298 298 299 288 303 322 305 294 301 300 297 300 323 381 364 357 376 342 344 370 396 388 352 386
229 310 399 476 527 489 437 382 361 354 333 307 302 297 298 295 287 286 287 288 267 274 295 296 295 294 312 370 362 345 355 351 350 377 387 348 408 372
315 400 555 523 488 416 380 360 348 323 307 299 296 297 293 291 301 287 282 291 271 260 266 295 297 296 310 363 361 342 342 345 325 380 369 402 442 381
396 553 514 460 393 370 355 338 314 305 298 295 317 344 345 344 331 316 311 272 277 273 272 276 297 289 308 364 358 344 335 328 360 382 356 404 416 378
535 506 416 379 358 338 322 315 306 290 281 338 318 315 315 363 334 327 324 363 371 330 263 278 294 289 307 365 344 336 330 332 362 385 382 398 395 408
443 396 365 347 330 314 306 306 286 272 303 320 242 373 382 376 374 373 369 356 382 360 303 279 291 286 308 361 354 314 332 351 360 379 367 388 385 400
384 359 343 322 309 303 319 287 273 293 253 374 371 362 357 355 364 365 360 354 368 357 303 280 293 290 309 374 346 314 339 354 359 384 365 368 386 378
356 335 318 305 307 328 322 329 319 319 324 378 404 398 390 367 349 348 348 347 396 375 303 279 294 293 316 368 338 292 291 345 351 381 366 358 371 369
329 314 303 310 325 324 320 318 366 375 370 363 361 370 383 382 383 360 344 388 409 352 297 279 292 295 342 347 306 284 284 342 353 371 372 358 342 346
312 299 308 327 321 316 239 295 383 375 367 360 357 351 347 342 366 380 370 387 403 314 289 281 290 300 370 345 322 281 284 337 356 360 368 360 340 353

GFSNE_2pvu_pres_036.txt.gz
Presure
208 208 203 202 208 210 187 190 188 184 186 181 184 194 199 208 237 306 287 273 242 213 214 221 217 239 252 258 315 561 553 555 420 414 410 381 372 177
207 206 208 207 194 186 187 189 189 183 185 184 199 212 283 308 272 267 220 218 216 221 227 247 372 537 510 491 484 483 480 485 493 497 501 509 523 526
207 203 197 187 187 192 185 184 191 198 202 203 272 265 260 262 222 218 219 204 240 286 506 504 482 483 486 467 453 448 439 435 440 449 459 503 500 496
198 191 189 193 183 186 191 199 195 210 244 141 278 255 221 229 214 226 240 254 517 478 457 446 499 83 401 388 368 357 355 352 356 356 358 368 372 396
192 192 187 185 155 195 200 151 217 160 198 268 216 204 209 219 233 250 480 489 449 434 435 449 383 359 347 347 343 348 348 346 354 365 373 377 355 353
192 186 190 191 194 199 212 258 275 277 241 222 220 217 227 237 398 512 458 428 417 459 418 364 365 357 353 346 342 352 361 356 356 360 365 366 374 381
187 192 195 194 206 235 231 245 249 222 215 225 217 237 245 480 494 437 413 405 431 412 364 336 347 335 338 327 329 330 326 364 368 356 357 364 368 369
191 193 166 206 243 269 263 219 220 215 231 222 238 301 519 485 420 395 393 454 378 375 344 328 332 323 314 322 314 322 354 415 405 400 398 389 388 376
177 205 202 261 284 246 214 209 214 227 234 245 420 517 478 410 396 377 376 385 362 351 323 325 324 320 318 308 308 322 407 410 476 479 419 393 384 390
205 235 213 275 210 217 207 212 225 234 252 447 511 479 417 387 366 355 367 355 339 326 322 317 317 313 310 304 304 323 400 394 427 411 405 400 409 422
236 242 262 186 223 206 223 225 234 330 516 494 471 417 382 364 342 353 353 328 321 327 324 316 313 310 313 306 306 328 396 380 366 358 353 346 349 353
271 179 207 210 207 218 229 239 365 518 478 453 400 378 369 344 319 306 300 290 321 313 326 316 313 301 314 305 299 326 380 358 352 339 345 345 346 351
233 212 203 210 220 232 246 510 501 462 422 383 362 359 345 322 306 306 298 301 297 282 283 304 301 284 305 306 305 319 378 361 364 353 354 356 377 404
202 206 215 222 235 306 515 473 420 394 369 358 351 329 314 310 301 298 303 299 301 288 273 287 272 259 273 301 292 314 368 350 349 348 369 304 393 364
206 213 220 236 341 486 425 389 365 354 337 323 316 311 306 297 291 292 335 363 352 306 304 270 272 263 269 299 295 318 364 339 346 312 291 312 351 400
203 216 246 482 457 406 374 354 336 321 315 312 305 297 281 276 296 249 313 315 351 343 329 328 287 259 278 297 297 316 363 340 332 364 279 370 400 398
216 295 507 434 391 362 344 330 319 313 335 330 294 287 271 318 321 380 389 383 364 338 337 386 308 313 287 301 306 326 356 318 354 298 367 369 387 419
330 475 416 381 353 333 321 316 337 337 335 331 321 256 364 373 369 366 369 366 373 377 361 383 356 312 286 296 308 362 354 311 350 359 367 372 386 391
454 400 372 346 329 316 314 337 337 331 268 271 242 382 378 405 398 385 355 357 369 361 362 358 349 300 287 297 320 355 301 339 350 372 362 370 368 389
397 368 342 324 313 322 334 334 334 352 249 371 376 372 367 377 386 385 383 347 355 351 366 353 313 286 296 308 359 312 291 350 359 366 355 365 372 387
365 338 318 308 327 328 327 272 284 246 390 379 372 364 360 356 350 366 382 384 347 391 356 326 294 291 301 340 335 290 333 354 365 366 346 374 366 377
338 315 305 310 323 319 288 252 301 379 382 374 368 363 358 351 350 345 365 393 371 385 330 297 286 291 313 344 337 283 335 356 361 364 332 348 343 342
316 302 301 326 320 308 251 241 397 395 387 379 376 378 379 382 390 356 366 391 403 347 300 285 290 303 342 337 284 341 334 342 358 355 332 323 344 351

GFSNE_2pvu_pres_039.txt.gz
Presure
181 186 184 186 170 185 183 190 206 204 192 189 194 193 191 194 193 199 203 135 196 293 290 205 218 201 197 223 235 236 249 295 519 521 530 535 549 562
174 188 183 183 182 185 181 194 204 200 193 185 187 193 193 201 205 226 283 230 277 215 227 214 213 228 244 260 356 460 467 490 487 482 489 502 513 516
182 181 182 189 182 185 184 195 187 195 190 191 191 202 175 218 276 168 240 215 215 219 224 242 255 276 478 456 465 457 434 415 402 399 395 394 401 421
183 181 190 183 186 180 191 184 192 186 194 196 202 166 175 160 293 212 221 219 226 238 255 295 467 441 430 451 422 399 377 367 364 366 364 357 370 374
180 191 184 186 185 179 186 190 192 194 202 148 160 136 173 268 208 218 223 238 250 320 474 438 417 415 413 394 371 356 354 351 339 337 341 354 368 372
190 184 182 191 181 188 191 194 198 181 214 187 143 283 253 217 217 233 242 254 500 447 418 402 417 405 377 361 344 337 335 333 328 325 326 333 356 364
182 187 190 182 190 191 195 201 182 136 218 285 281 220 217 219 239 246 402 493 419 409 406 431 407 371 361 341 327 322 320 318 312 326 325 415 423 421
190 185 179 190 192 195 135 204 217 253 280 269 214 218 225 245 250 510 485 414 383 383 372 387 375 359 345 329 323 320 311 319 320 318 321 413 459 465
181 183 190 193 199 202 213 231 239 270 258 224 219 236 247 324 499 449 401 380 364 359 394 354 348 336 331 327 321 316 314 316 317 312 422 407 392 390
184 183 179 202 204 215 233 278 261 214 215 229 240 250 457 455 409 393 373 352 338 334 325 311 327 340 330 326 315 312 307 311 316 309 398 387 377 359
190 199 203 204 230 248 219 255 218 205 231 243 258 427 402 386 381 369 358 342 316 310 320 304 306 304 296 310 316 305 288 308 309 319 379 366 352 350
200 190 214 233 278 256 207 223 222 237 243 404 400 374 363 352 339 334 323 318 309 297 306 292 305 309 295 287 284 270 271 287 305 320 386 361 361 360
204 219 246 262 249 210 217 227 239 248 411 384 362 349 336 325 320 318 314 311 288 276 274 285 300 308 295 291 289 265 268 278 303 327 381 362 355 354
256 267 229 216 216 223 233 240 356 396 371 354 340 329 325 337 348 345 312 297 285 259 245 321 324 360 326 319 297 277 273 284 307 331 370 345 350 384
253 205 215 213 226 230 241 406 384 364 347 332 323 350 347 341 338 333 262 333 362 399 391 397 330 315 367 331 327 312 280 304 316 336 357 338 365 317
202 216 200 227 236 315 396 375 357 341 330 352 348 341 337 404 261 244 388 387 371 371 387 392 383 344 331 362 319 314 296 296 316 367 325 362 369 380
212 223 232 242 413 382 366 349 337 328 353 340 335 325 312 252 255 341 398 402 385 359 357 378 388 348 344 354 315 303 296 309 360 312 365 372 363 367
230 236 415 400 373 357 340 330 337 347 337 337 334 263 249 386 378 376 376 396 394 394 353 364 363 372 357 345 308 296 308 354 310 363 380 356 366 372
502 437 391 364 347 331 321 321 336 339 338 279 374 303 381 379 372 367 361 360 391 390 354 359 363 361 338 300 293 309 356 292 319 381 354 365 363 375
430 388 361 342 325 316 318 334 331 327 259 286 396 389 381 377 372 363 361 353 383 365 349 359 354 320 298 296 312 356 355 317 374 349 359 346 374 381
384 356 335 319 312 306 327 325 293 250 409 402 399 400 399 397 385 384 365 350 380 346 364 346 306 297 296 318 349 301 286 361 360 329 344 342 354 356
355 335 315 308 305 326 321 319 248 392 397 408 416 409 407 401 403 417 409 359 345 377 339 302 295 297 318 349 287 344 350 360 357 325 366 347 360 351
336 312 304 306 325 317 310 239 359 383 393 399 418 422 425 421 426 440 439 399 401 329 299 292 297 343 331 284 305 364 354 356 353 337 350 358 333 332

GFSNE_2pvu_pres_042.txt.gz
Presure
230 225 220 215 203 204 192 194 188 182 172 192 191 185 189 184 190 191 195 196 194 205 205 215 206 287 252 199 201 210 222 229 238 245 248 284 309 516
231 224 220 216 210 205 198 199 197 191 185 184 193 185 186 185 190 195 197 200 204 193 223 253 306 220 202 219 216 234 252 263 351 460 448 455 480 482
218 222 220 212 210 206 197 201 198 194 188 190 183 195 183 191 194 198 202 159 195 237 299 236 217 219 224 246 258 272 454 435 423 454 437 430 427 409
221 218 217 216 212 212 209 201 198 196 194 188 196 185 193 197 200 175 144 223 255 210 221 230 234 253 261 306 453 430 418 428 410 401 399 379 364 356
221 224 223 218 216 211 211 200 208 194 191 195 192 194 198 203 211 223 242 282 213 228 237 254 257 420 445 425 414 427 409 387 377 365 355 349 340 345
216 221 227 224 220 213 211 207 193 193 193 192 197 199 134 213 232 257 244 223 229 251 258 377 458 421 402 399 398 389 369 360 350 340 330 329 326 325
214 222 229 228 223 218 211 193 186 192 195 157 203 213 217 243 274 218 229 242 254 269 466 409 407 378 377 411 385 362 352 339 332 318 322 318 319 316
214 223 229 228 224 221 185 192 194 191 199 210 215 229 251 209 226 232 248 255 400 401 406 380 374 351 352 375 358 339 341 326 328 322 319 317 320 324
214 230 228 224 191 188 192 196 174 173 217 225 248 229 216 229 239 247 256 384 364 362 378 366 351 336 333 320 313 307 346 341 332 326 321 316 316 319
231 226 223 186 193 196 190 201 206 216 232 253 245 225 232 244 252 364 379 355 341 335 336 316 336 329 323 318 308 300 312 299 335 324 297 297 315 308
223 217 195 195 192 139 206 211 165 232 277 237 229 238 251 256 389 371 349 336 324 324 334 319 317 310 295 290 286 301 302 307 290 287 278 275 296 305
195 193 192 203 205 212 221 238 272 263 222 232 243 253 392 375 357 346 341 363 358 346 357 343 338 314 288 279 274 321 309 304 297 285 278 274 287 307
193 200 204 211 219 211 266 265 219 228 237 248 315 378 363 348 351 363 356 352 343 398 376 252 245 311 331 326 329 344 330 347 318 317 279 277 294 312
203 211 218 234 264 257 228 228 236 247 255 382 367 352 340 351 348 349 347 344 314 256 243 341 389 375 363 368 351 330 331 317 346 337 287 301 303 328
221 245 262 253 223 233 232 242 250 373 368 355 346 344 360 353 351 347 394 267 252 239 405 400 385 371 373 387 382 388 345 365 324 325 314 298 321 367
254 248 229 221 233 238 243 275 368 356 349 340 354 352 347 350 341 266 250 393 387 386 413 410 398 362 367 383 370 366 329 353 317 310 301 328 364 347
225 215 224 233 240 267 379 360 348 340 338 350 347 344 381 416 252 397 393 382 376 368 386 394 401 366 373 372 367 359 350 319 304 310 338 301 370 370
225 228 237 248 396 369 350 339 332 333 342 338 399 426 383 413 404 394 389 384 369 363 390 390 360 368 369 362 359 330 308 303 314 359 283 367 365 380
229 248 417 391 362 347 333 321 327 335 333 410 259 411 426 415 414 410 399 388 373 361 399 359 357 359 358 330 310 301 309 358 292 368 349 347 388 360
500 419 386 363 345 328 319 326 329 332 391 398 397 413 432 430 426 408 415 399 364 378 353 361 352 329 309 298 302 338 333 291 367 337 349 362 337 334
426 381 361 341 322 313 326 325 327 335 400 415 397 425 440 440 437 426 421 438 370 354 361 328 309 301 301 348 356 282 321 363 332 361 348 345 322 322
379 359 336 316 309 313 319 321 274 350 408 398 397 428 448 450 441 458 468 376 396 332 311 301 296 344 339 341 301 342 360 338 347 346 372 309 309 310
356 334 313 307 306 320 312 315 328 370 419 394 401 420 461 474 478 379 411 333 309 299 296 340 329 334 286 277 349 359 361 340 358 330 311 305 303 301

GFSNE_2pvu_pres_045.txt.gz
Presure
269 271 258 250 211 238 229 226 227 226 218 219 219 219 214 210 210 205 204 202 190 195 196 200 194 195 195 199 203 213 222 242 297 266 227 218 214 216
261 258 256 252 244 240 205 230 228 232 230 224 221 219 215 215 211 205 204 203 203 196 204 194 197 203 202 209 219 252 294 244 208 214 219 239 246 324
254 253 191 251 243 239 239 230 228 229 229 225 228 224 221 218 218 220 203 212 201 197 200 201 202 209 216 229 301 227 210 223 260 393 471 459 447 447
250 250 249 249 248 244 238 234 226 226 226 228 231 232 231 230 227 225 195 203 192 199 203 209 213 223 306 248 210 239 282 454 445 432 422 418 412 426
239 246 254 253 253 242 239 233 224 223 223 226 228 237 236 237 229 227 196 198 157 208 213 226 260 275 215 251 282 398 421 413 404 398 415 420 402 387
240 241 247 255 252 252 248 235 227 222 222 226 232 243 244 240 200 200 200 207 213 226 241 292 212 242 266 341 418 403 394 449 426 411 395 377 366 357
239 238 249 258 255 251 249 243 228 223 223 226 241 240 220 203 146 167 213 223 234 295 212 246 258 279 378 372 362 385 365 363 387 372 357 347 340 334
242 255 259 254 248 245 237 226 221 244 236 241 205 202 204 206 216 226 238 287 209 241 254 272 383 363 359 354 347 336 349 333 327 330 348 338 332 323
256 246 237 235 228 222 222 228 234 228 207 207 212 213 223 229 255 284 216 244 253 270 381 373 357 344 343 342 348 357 321 325 319 315 305 336 336 332
227 225 218 215 220 228 219 213 167 207 213 219 226 232 256 283 225 251 253 268 379 368 367 358 346 351 355 352 359 355 357 308 295 290 301 308 300 333
214 221 223 226 215 198 202 206 210 217 223 239 280 277 233 250 255 262 380 375 359 353 354 365 356 348 345 339 355 353 269 261 292 272 291 302 305 291
218 187 196 201 209 207 213 220 232 268 271 262 235 250 254 264 386 380 368 366 371 365 366 357 362 370 344 331 307 253 233 342 338 296 263 258 318 296
199 203 206 208 227 249 264 265 262 248 245 243 248 257 292 374 364 360 368 368 358 360 386 383 363 337 423 397 251 295 407 390 322 322 324 319 333 340
205 227 252 265 265 260 249 246 246 239 247 253 279 371 364 355 359 358 393 435 427 421 335 348 361 401 412 410 390 387 393 397 408 391 371 328 311 350
265 263 257 251 247 239 232 234 240 253 260 369 361 353 350 353 355 435 429 420 408 406 405 398 383 392 402 399 378 375 380 403 384 362 349 356 334 343
217 250 239 224 233 234 240 251 287 373 358 350 344 345 349 429 409 416 428 424 410 395 400 389 374 396 395 387 366 376 381 364 343 335 354 344 328 313
223 219 223 229 234 247 409 385 363 348 339 339 344 364 418 407 419 432 437 427 425 398 383 377 375 398 357 364 371 357 363 362 355 334 315 311 330 388
224 223 234 297 425 402 378 357 342 331 333 337 415 425 411 435 444 442 442 435 419 406 378 359 388 362 360 365 352 351 333 322 313 314 355 363 320 392
314 332 351 441 395 371 348 333 319 332 330 397 431 413 435 461 458 447 441 441 423 384 363 351 350 353 343 328 319 310 306 326 364 289 362 355 349 339
344 530 435 389 364 341 323 309 325 323 382 448 409 419 464 486 468 460 468 435 372 353 347 340 323 315 308 306 320 347 289 295 367 333 362 332 328 310
523 411 390 360 333 317 312 316 319 372 375 387 413 415 426 383 382 373 375 353 337 320 310 303 301 322 347 361 288 308 360 363 374 349 318 306 296 290
415 387 354 326 310 296 317 313 320 352 315 398 363 348 322 314 311 309 306 302 299 298 323 329 329 332 331 297 359 367 365 374 330 302 310 311 309 304
379 343 320 303 290 323 308 297 356 368 345 316 306 302 294 293 290 287 294 340 327 313 305 317 331 332 338 350 364 375 343 318 290 301 281 287 298 301

GFSNE_2pvu_pres_048.txt.gz
Presure
235 238 234 234 226 228 233 253 259 260 256 251 254 254 252 247 244 240 232 233 236 240 237 238 232 228 222 218 216 221 203 210 199 194 196 202 204 210
237 234 232 228 221 229 247 237 251 256 254 252 249 249 250 247 243 242 236 230 230 232 236 239 240 243 242 242 240 236 211 193 194 203 206 214 215 223
236 233 228 223 224 249 247 248 247 244 244 250 254 254 251 248 247 244 240 231 230 232 229 234 239 242 249 251 210 199 200 205 213 214 218 228 250 268
234 228 227 226 237 243 237 237 240 248 245 249 257 261 254 254 252 244 241 230 231 231 233 233 233 244 212 201 201 209 215 218 227 238 275 265 235 233
230 218 222 225 230 221 233 239 245 250 260 264 264 260 255 251 252 253 248 234 232 231 234 253 212 203 205 215 219 227 240 255 264 245 229 313 447 486
231 207 211 211 212 231 241 248 259 261 254 250 246 246 244 243 245 240 229 229 244 239 205 205 214 225 233 238 229 264 252 227 311 381 370 367 375 408
216 217 219 226 238 246 253 262 241 231 231 231 230 232 233 237 239 213 207 202 204 216 217 228 251 260 255 242 231 275 391 389 373 352 346 346 341 355
229 211 228 239 252 255 235 224 220 223 229 232 232 197 199 203 206 207 213 223 285 280 274 251 230 218 284 388 383 380 379 370 354 341 331 342 336 341
218 236 243 251 228 218 221 227 226 216 198 197 211 211 213 221 288 282 273 261 233 223 258 273 344 382 373 364 358 364 364 361 365 353 349 348 346 327
248 246 221 219 223 218 206 202 193 208 214 218 250 278 274 267 263 253 233 255 267 340 388 390 375 363 360 358 365 370 376 373 362 347 344 347 349 329
219 218 213 204 196 191 201 233 276 278 274 271 261 252 251 242 250 263 272 395 386 376 366 377 374 370 419 414 362 369 365 366 363 353 335 339 343 288
200 205 192 227 205 242 249 264 261 252 244 245 238 234 252 262 304 392 387 380 367 363 436 452 437 443 427 405 410 412 428 420 272 418 412 345 253 241
212 215 238 246 243 267 251 237 236 234 228 238 242 259 311 383 374 373 367 369 412 426 422 443 443 422 412 400 386 401 416 434 438 402 401 390 378 338
236 241 268 251 241 230 226 231 236 234 242 276 325 384 372 365 361 357 417 424 426 435 447 448 440 407 398 387 378 386 403 411 408 390 380 381 384 395
257 238 227 213 222 227 230 233 249 290 316 392 375 362 356 351 357 429 434 447 457 452 455 445 422 392 384 376 376 387 394 399 373 375 387 392 399 397
221 193 223 225 232 244 279 310 336 375 380 362 353 346 345 443 436 463 486 473 456 445 443 438 398 381 367 394 391 390 373 372 367 361 361 355 349 344
220 226 241 272 318 335 344 383 402 367 356 347 337 405 428 442 387 509 485 462 457 446 430 392 373 378 362 358 362 360 359 359 356 354 357 355 348 324
248 307 340 347 473 441 423 387 362 349 335 336 460 428 432 417 396 391 426 431 414 385 358 360 360 355 351 350 345 342 332 326 316 309 310 326 376 414
352 434 561 518 443 401 373 355 338 315 331 392 368 338 324 320 321 328 338 344 344 340 335 330 326 321 319 315 308 303 315 338 363 368 382 391 339 342
564 547 495 426 389 362 344 321 311 324 382 346 320 310 305 301 299 297 299 302 304 305 311 312 321 338 343 355 364 366 364 300 345 363 335 324 305 299
531 450 404 374 350 327 306 329 319 329 264 317 302 301 296 293 290 330 338 327 324 319 320 332 330 332 341 356 362 369 358 375 316 312 310 312 311 310
410 377 349 324 305 302 332 319 311 234 326 304 296 293 292 284 348 328 318 312 310 320 322 325 329 343 350 366 372 375 314 304 301 303 303 297 293 294
321 308 295 315 329 331 317 311 229 356 313 293 292 286 289 354 331 314 304 308 319 332 320 319 338 354 360 372 310 307 296 285 288 286 293 287 288 290

GFSNE_2pvu_pres_051.txt.gz
Presure
231 226 218 207 214 219 223 235 234 233 231 226 225 241 226 232 238 243 248 251 255 260 266 265 263 262 263 259 252 242 238 232 236 238 238 240 239 238
227 216 213 208 219 227 239 232 235 235 223 222 235 223 230 234 239 242 248 254 252 255 259 264 265 267 263 262 260 256 246 237 234 235 232 237 241 246
164 216 214 219 220 238 236 160 234 237 220 223 226 215 215 232 241 251 266 261 260 262 262 265 268 265 263 261 261 257 253 243 237 238 239 235 240 258
214 221 221 218 238 233 232 232 226 225 218 212 228 237 256 264 262 255 254 252 254 252 250 248 244 244 244 245 245 245 243 239 236 244 257 217 216 209
218 183 229 229 226 232 236 228 207 220 229 218 250 258 257 252 237 230 228 231 230 232 235 234 238 243 243 244 242 239 239 212 216 208 209 213 218 223
231 231 223 211 186 234 219 215 222 235 219 260 258 231 224 229 234 232 226 225 222 223 211 197 199 206 206 210 242 209 246 247 249 273 277 274 274 274
220 206 210 225 226 222 214 223 227 245 250 226 231 233 228 219 218 213 208 194 200 267 281 269 263 262 256 256 257 258 259 264 326 264 242 246 243 345
209 215 220 228 224 217 234 254 248 226 226 225 220 213 198 196 221 258 286 262 256 241 249 240 241 239 243 244 404 399 396 395 391 385 373 365 358 355
216 221 228 216 214 228 245 227 222 217 225 234 207 217 249 283 281 250 241 241 240 247 278 285 352 403 394 377 372 372 373 381 406 385 371 367 364 363
227 220 221 225 236 228 213 211 198 217 238 230 269 273 248 240 238 240 248 261 270 297 403 401 393 371 357 354 422 446 448 458 456 451 448 402 361 358
220 219 230 236 211 216 192 226 238 243 267 253 235 234 229 238 249 263 268 316 412 396 371 369 374 442 436 421 424 436 445 443 436 430 430 431 427 355
235 222 208 199 225 234 236 247 263 227 229 227 220 240 252 261 278 361 417 401 372 351 443 455 452 479 479 450 431 422 427 428 423 409 406 416 420 420
220 226 237 241 246 257 232 225 222 223 230 238 252 256 286 355 404 400 370 370 468 425 442 507 494 473 465 458 420 405 410 411 407 410 421 406 407 407
241 246 241 227 192 220 211 222 227 238 247 253 291 385 407 397 377 383 454 402 411 513 486 481 476 450 439 425 409 395 398 392 405 415 400 392 387 389
220 219 199 212 214 215 232 243 254 300 367 435 406 392 383 353 458 359 342 376 383 428 503 455 435 416 407 396 377 382 392 369 365 366 369 378 382 384
212 212 211 197 235 259 325 536 491 442 409 382 373 356 348 371 331 325 319 317 321 359 366 368 360 360 361 361 359 359 356 357 358 360 361 363 369 377
209 209 230 320 590 566 476 453 412 386 369 359 347 340 357 322 315 313 306 306 324 306 318 327 329 333 335 339 346 348 348 348 348 349 350 350 353 339
223 328 440 580 553 471 425 392 371 359 342 324 333 352 320 308 306 303 302 339 332 332 338 345 346 334 310 309 309 311 311 305 309 313 319 352 355 352
341 386 362 478 432 400 377 362 337 314 336 321 356 323 306 302 298 294 336 330 320 314 329 328 332 336 346 354 358 353 361 292 360 368 378 376 341 334
388 356 324 318 320 315 312 317 339 326 322 372 334 270 299 294 292 343 326 313 320 327 326 321 331 348 352 358 358 373 372 356 324 313 313 310 306 306
363 333 312 302 334 338 337 339 326 311 311 258 278 301 293 289 329 330 307 299 320 330 325 326 344 354 363 368 337 312 307 304 298 295 297 301 309 300
349 323 305 293 292 329 325 334 271 307 311 358 316 296 290 287 348 313 296 303 322 338 338 342 348 377 326 305 304 294 294 292 294 289 291 300 294 290
339 316 303 292 287 280 323 332 309 299 308 337 323 296 285 285 336 309 315 311 328 328 338 353 372 307 303 302 292 289 294 276 287 290 289 285 294 292

GFSNE_2pvu_pres_054.txt.gz
Presure
226 236 225 231 220 211 223 230 229 225 224 227 224 227 240 235 237 231 230 224 225 221 234 231 232 261 267 268 264 260 263 265 266 267 270 270 268 267
218 215 215 215 231 239 237 236 228 228 209 220 227 238 218 237 231 228 230 227 235 227 224 269 267 264 253 253 254 251 250 253 256 261 265 274 276 269
219 225 239 245 242 239 237 226 227 227 231 191 240 206 235 228 231 233 215 231 234 232 261 255 243 235 232 232 231 232 231 231 233 238 242 250 258 269
251 246 239 240 234 231 226 220 224 230 236 247 215 226 231 228 223 224 230 232 263 251 232 229 233 234 233 234 236 230 231 233 235 237 234 235 240 244
242 241 235 227 221 223 223 222 224 233 219 215 222 229 232 224 227 233 257 242 226 232 232 222 257 250 244 218 290 219 249 216 239 161 208 208 221 230
240 170 196 228 222 224 230 239 235 205 213 220 228 226 211 235 250 242 223 227 232 234 224 232 275 263 250 251 246 243 251 250 247 251 259 242 268 253
206 216 233 239 236 234 232 205 211 218 223 232 226 223 237 251 224 221 194 209 258 267 254 235 238 245 248 258 268 283 311 406 437 430 420 398 255 256
200 205 196 222 221 224 212 212 218 224 229 220 243 235 215 205 207 247 260 265 264 227 237 238 250 253 265 291 319 415 406 401 395 390 381 382 384 375
208 231 221 217 212 211 216 223 227 220 232 238 216 199 224 252 260 239 228 230 233 240 247 249 274 318 408 392 381 391 394 421 440 464 457 446 442 439
217 217 214 215 217 227 228 225 234 227 221 214 254 260 248 229 226 229 241 241 247 251 285 312 407 448 466 440 420 414 408 406 425 472 465 455 448 441
207 215 223 227 224 226 229 225 214 222 251 256 226 223 225 229 240 242 248 255 292 388 398 377 373 415 516 496 486 472 470 475 476 473 458 431 419 416
229 226 222 219 218 214 209 244 258 227 192 223 225 227 237 247 255 286 326 416 391 384 361 348 339 406 521 488 465 464 468 469 467 422 408 403 400 399
213 211 212 211 231 255 235 212 222 220 221 230 234 242 276 355 435 416 385 389 371 350 335 326 327 350 392 399 410 421 419 403 392 395 397 399 385 388
226 247 235 224 218 222 219 216 226 226 194 237 412 442 406 405 391 370 366 357 343 327 312 357 369 328 342 363 374 364 371 380 368 375 382 396 399 398
215 215 218 222 217 212 225 225 235 288 462 426 405 392 388 369 353 352 348 328 323 315 338 333 344 350 352 328 338 350 359 358 356 360 362 361 364 370
215 217 218 209 218 228 234 261 362 433 406 387 373 365 352 343 366 337 320 299 307 330 340 345 335 337 340 346 324 326 332 335 343 344 343 345 340 349
209 208 219 226 232 234 369 349 329 316 343 331 329 344 337 362 335 317 258 303 343 323 324 337 332 336 361 373 342 359 366 325 315 315 314 320 330 339
222 206 226 223 398 366 347 325 307 350 357 347 330 326 368 334 317 293 295 345 322 316 327 327 331 340 352 332 350 364 349 332 349 352 308 386 409 385
222 228 270 346 377 344 329 314 299 336 340 332 323 317 351 320 304 296 334 320 311 309 337 340 340 343 349 373 391 366 323 322 322 321 315 317 322 325
243 311 337 382 364 332 316 304 293 287 339 318 324 306 342 312 299 290 337 307 312 311 332 338 349 361 366 311 312 303 305 304 295 301 304 308 314 309
297 315 324 377 352 323 304 295 320 331 331 288 323 303 355 312 296 288 326 311 311 330 336 349 364 315 306 294 288 291 290 288 284 289 286 286 288 298
299 317 328 368 338 316 293 284 315 326 325 242 251 302 355 317 293 290 324 303 319 327 344 359 313 293 280 282 278 286 287 281 283 286 285 292 290 287
306 310 391 358 326 309 289 286 303 318 324 236 299 301 338 317 292 292 314 313 327 328 349 316 286 277 276 278 284 284 277 282 283 291 291 295 294 288

GFSNE_2pvu_pres_057.txt.gz
Presure
213 223 151 221 215 214 221 216 211 210 212 103 223 242 243 244 250 240 231 226 234 185 233 226 226 229 229 227 215 235 237 224 264 251 257 255 254 256
217 128 155 216 225 221 217 217 224 231 230 229 241 239 238 239 242 239 241 250 207 214 229 231 236 235 220 236 244 264 254 245 236 229 229 229 230 238
128 192 221 229 158 188 238 247 156 241 246 240 244 236 231 231 227 228 239 217 222 228 237 236 217 228 244 261 245 226 233 231 229 231 227 229 234 233
127 233 242 127 255 150 208 242 244 241 198 239 235 234 228 227 236 227 216 220 227 236 228 233 250 244 232 230 209 202 232 268 270 259 256 255 256 253
240 228 167 144 211 164 188 229 166 245 238 233 230 233 244 242 216 214 219 230 234 233 238 238 233 199 205 262 273 260 240 237 238 238 242 243 241 215
236 235 238 223 135 221 198 215 215 211 215 234 246 228 216 214 218 225 233 225 228 236 221 234 262 268 261 230 226 231 258 262 263 267 284 297 310 320
271 258 254 229 146 173 240 177 205 211 220 226 214 214 217 225 233 229 238 239 233 246 253 260 235 225 234 250 258 264 268 294 310 379 442 437 425 415
246 250 254 248 241 239 249 238 260 229 210 211 216 212 228 227 232 236 240 247 242 253 226 224 234 242 251 261 272 298 388 404 380 371 374 437 417 402
277 255 248 254 240 242 244 197 253 244 222 214 235 230 235 239 239 247 238 214 226 229 234 234 243 260 282 327 397 387 369 357 354 498 514 514 503 488
251 256 215 249 248 246 248 240 216 234 232 237 234 241 242 249 216 214 225 232 241 240 251 278 300 356 385 355 364 357 346 370 457 476 477 478 475 462
236 249 254 250 235 234 230 226 226 226 229 240 240 221 209 217 230 233 171 242 299 409 427 397 382 372 358 346 343 377 377 403 408 419 424 429 428 428
223 224 223 223 225 227 217 216 232 238 233 216 217 217 226 234 242 242 265 422 405 393 386 367 353 343 327 342 365 369 378 360 392 382 417 397 394 395
217 217 221 218 218 226 234 228 220 215 219 225 227 224 240 241 258 412 397 379 369 368 362 340 327 321 345 348 344 359 374 356 362 364 368 367 368 369
214 223 226 224 219 186 198 205 190 229 228 230 245 237 323 351 328 319 361 354 367 351 329 321 327 344 338 340 331 341 373 381 333 349 352 361 355 357
219 212 205 199 196 205 212 230 240 245 235 227 354 357 329 372 360 351 346 357 342 326 315 346 334 332 344 343 338 299 348 367 353 314 323 336 347 341
211 209 198 190 218 224 232 245 229 237 364 348 334 320 314 352 345 358 350 330 320 283 347 333 323 346 349 360 368 362 361 373 298 364 361 332 324 317
219 224 223 212 232 236 237 227 405 375 348 324 309 307 313 332 333 353 334 316 306 312 327 323 324 342 354 386 347 335 360 339 342 340 341 375 361 363
225 225 227 216 233 226 312 323 387 354 331 309 296 329 338 319 322 364 325 308 300 332 322 317 332 339 371 341 322 316 308 306 303 306 306 311 318 320
223 226 273 274 295 309 304 335 374 337 314 295 290 326 326 316 312 371 314 299 308 322 313 332 333 357 322 305 292 295 299 292 289 288 289 288 295 300
250 285 284 297 303 302 315 386 358 322 302 291 306 323 331 252 312 357 308 289 315 308 322 338 362 315 292 291 289 292 291 287 286 289 289 292 294 293
288 287 299 306 301 308 371 377 340 312 295 289 321 323 327 338 309 345 304 287 313 314 332 354 302 291 279 281 284 279 277 282 291 296 292 295 294 294
273 269 304 296 308 330 392 357 324 300 292 292 331 325 325 309 306 339 300 289 313 325 350 304 290 275 280 280 274 288 306 286 278 306 309 377 361 311
271 298 296 312 358 403 372 338 311 295 286 313 335 333 227 314 307 339 291 299 318 338 318 284 283 284 277 272 279 287 268 280 284 284 294 300 309 320

GFSNE_2pvu_pres_060.txt.gz
Presure
207 143 221 202 226 215 224 242 136 154 210 220 223 216 225 225 241 244 247 241 245 243 249 245 235 236 244 234 214 216 218 225 237 235 228 218 218 231
214 154 229 173 161 227 189 125 213 218 223 226 221 230 242 246 250 248 246 244 245 242 241 239 241 238 219 216 224 229 236 231 225 240 255 260 235 237
253 241 237 235 191 213 140 214 195 226 221 140 215 248 148 236 215 147 248 223 249 237 237 248 236 222 218 224 232 235 233 245 243 216 238 216 260 242
247 242 242 237 233 229 177 217 216 225 135 146 223 153 163 180 214 221 217 216 208 231 227 222 220 220 234 233 241 237 218 248 241 246 256 200 231 232
249 238 233 228 225 222 223 226 224 232 227 221 138 223 198 183 174 220 216 212 221 215 223 228 233 241 242 224 235 242 253 240 230 219 220 222 230 236
242 246 238 230 232 231 226 235 223 239 195 210 250 168 236 247 245 247 241 233 222 218 228 243 226 222 244 231 221 222 227 237 241 241 244 254 269 288
273 261 251 241 239 245 245 252 267 254 255 249 250 251 247 246 258 263 261 255 224 238 241 223 249 225 234 232 234 239 248 248 257 268 293 413 425 417
247 263 255 251 261 261 256 245 253 243 238 246 252 241 241 251 256 237 225 233 236 244 243 222 230 206 237 239 246 252 262 305 417 399 379 380 381 376
261 258 255 248 219 277 272 258 259 256 255 260 257 256 244 231 235 232 236 243 242 235 191 216 229 239 208 254 283 415 400 384 368 357 352 357 394 399
250 253 267 267 267 261 248 242 239 237 228 226 230 234 236 237 236 237 227 236 233 225 234 231 241 255 349 406 399 383 361 349 340 348 351 376 378 387
271 267 234 230 231 228 230 228 226 225 226 231 211 236 227 224 226 224 236 242 239 234 246 259 360 377 369 374 357 346 340 356 362 353 351 390 359 381
229 228 223 219 219 216 216 226 228 227 226 224 189 214 190 236 231 246 231 238 256 376 352 357 368 371 350 340 334 350 357 354 354 355 374 386 336 353
226 225 231 226 223 220 218 218 214 216 210 202 193 236 239 242 233 242 347 353 374 366 354 371 347 338 330 317 342 343 348 358 292 376 328 373 322 333
219 216 216 216 215 211 213 197 158 195 229 239 222 237 230 240 332 356 344 333 344 344 360 338 325 319 316 341 323 341 348 362 379 361 386 366 365 337
216 216 217 218 219 218 161 227 171 232 234 225 243 321 338 369 345 330 333 351 340 349 341 322 309 324 331 322 333 343 367 336 351 355 396 406 384 376
229 231 233 167 167 235 233 228 224 228 306 313 324 319 373 348 327 310 341 337 324 359 328 312 318 324 329 349 357 361 328 312 313 311 314 319 321 319
197 229 228 168 222 223 227 262 290 299 305 327 314 377 352 329 312 295 336 328 318 322 316 305 326 318 342 362 317 308 302 299 299 298 295 297 300 302
225 224 219 226 225 293 272 274 320 311 307 331 365 358 331 313 296 324 326 323 249 328 305 306 317 333 355 313 299 291 289 288 288 284 288 291 293 295
223 219 222 278 301 273 271 293 306 305 325 390 366 336 312 296 290 328 322 313 340 319 297 312 323 340 310 295 290 294 290 286 300 303 319 326 301 290
217 226 269 300 274 271 274 304 306 330 404 376 343 314 296 287 337 330 313 286 333 313 299 320 335 315 294 290 287 278 288 290 280 297 285 288 299 377
225 270 300 275 267 273 286 306 329 412 382 349 316 299 286 304 335 338 307 300 333 300 301 328 335 294 288 281 276 286 279 273 285 280 282 292 294 303
237 276 304 259 260 276 306 406 425 387 353 321 304 290 289 317 305 342 321 301 333 293 312 340 303 288 278 278 276 279 264 281 272 269 273 280 286 292
262 297 289 255 276 298 431 435 390 357 326 306 294 281 314 307 280 274 330 315 330 298 326 344 288 288 286 275 277 272 278 273 278 280 287 280 299 297

GFSNE_2pvu_pres_063.txt.gz
Presure
126 140 215 212 209 207 206 166 217 190 154 217 224 213 167 128 227 222 212 225 223 229 237 241 211 219 233 251 258 260 234 245 248 249 241 226 202 212
244 239 237 196 241 237 233 225 225 222 225 222 222 219 221 228 224 221 200 125 227 223 245 214 210 182 185 215 209 206 237 218 218 215 215 213 222 226
263 260 257 252 244 238 233 237 233 232 229 229 231 213 226 221 220 216 171 228 229 199 170 175 205 216 258 254 225 224 207 213 219 230 238 231 230 234
270 271 260 257 251 247 244 239 233 234 235 176 224 221 219 215 217 227 226 224 232 252 255 179 251 242 251 262 258 245 237 229 248 241 237 230 253 249
259 262 265 260 249 249 242 236 236 230 230 231 230 219 225 227 228 226 248 248 254 163 172 254 255 253 257 256 260 251 247 237 226 239 250 241 228 227
282 268 250 239 240 252 248 252 248 241 234 245 237 240 235 241 251 259 262 249 247 253 255 254 264 261 243 224 237 235 236 250 246 227 221 223 234 241
310 320 278 261 251 252 251 250 251 264 255 248 252 250 259 257 254 253 261 253 260 265 272 239 233 231 246 242 241 241 227 233 231 237 189 242 253 264
314 291 285 276 271 255 255 233 238 257 255 259 257 251 259 275 270 264 251 236 233 227 230 233 218 223 232 216 237 241 239 234 231 232 261 281 409 395
298 292 289 283 275 270 253 255 260 253 258 266 269 261 237 235 236 236 234 220 235 232 219 233 245 239 244 248 235 254 268 307 369 373 388 358 347 357
274 268 263 266 262 253 252 250 237 235 237 236 230 222 227 227 233 228 225 225 226 240 235 248 239 238 251 269 340 385 378 378 374 362 354 346 354 359
244 244 243 241 238 230 228 224 222 220 225 227 229 229 225 225 227 230 236 241 232 238 235 254 272 353 358 366 376 378 368 356 345 337 356 351 361 360
235 232 227 228 230 233 232 226 225 225 225 225 226 226 231 232 236 245 237 235 241 262 381 360 349 346 341 366 358 349 342 334 359 348 366 368 382 387
226 226 226 225 222 223 224 225 224 225 229 232 233 236 182 218 229 235 256 324 350 379 355 334 320 337 362 341 333 333 334 346 344 372 388 381 378 388
229 228 229 229 229 230 233 235 236 235 218 195 188 225 261 285 276 320 316 364 369 350 330 310 338 339 337 326 315 333 334 341 371 335 327 324 321 323
225 225 226 225 225 225 223 218 222 218 223 230 307 281 273 269 318 309 370 371 343 325 311 302 325 344 324 313 316 317 332 355 322 306 306 304 305 300
222 225 224 218 232 230 195 219 224 238 314 287 260 268 307 312 318 366 367 338 319 306 309 339 325 335 312 305 322 342 350 312 308 301 298 298 293 295
217 216 220 226 231 229 223 231 256 312 263 269 275 304 305 319 372 375 342 317 302 298 334 327 342 299 299 329 348 331 308 302 293 290 286 285 302 311
216 216 224 228 227 228 233 248 315 299 258 278 306 316 333 399 377 341 317 300 291 330 326 307 334 306 312 357 328 298 290 288 282 283 299 287 294 295
216 222 227 223 230 237 245 309 300 260 281 311 338 375 397 378 336 314 300 291 334 340 320 306 329 295 323 310 293 284 299 290 283 286 275 288 293 289
227 227 225 231 237 251 309 312 258 281 308 439 421 405 373 333 313 300 290 313 311 350 340 318 319 307 339 298 290 269 279 277 281 276 284 276 276 278
229 228 229 237 251 305 297 258 278 309 473 440 410 364 330 310 299 289 309 314 309 286 333 330 308 327 320 291 289 282 281 280 274 263 273 264 287 304
231 230 238 285 307 303 257 276 314 473 440 397 357 330 311 300 289 291 309 305 231 320 305 339 305 340 302 287 277 282 277 268 275 272 280 290 265 273
235 239 292 307 299 254 271 283 448 418 385 354 332 314 304 294 282 295 306 231 266 320 314 342 313 348 281 276 280 286 275 272 278 285 268 258 267 267

GFSNE_2pvu_pres_066.txt.gz
Presure
289 278 277 274 264 255 255 251 247 244 239 247 215 203 227 215 226 217 223 218 225 220 217 232 198 235 206 229 226 203 232 254 265 162 167 205 166 217
292 289 289 278 273 265 254 248 245 244 241 220 215 221 222 228 224 220 220 219 201 227 228 228 228 213 168 220 235 214 260 244 247 258 229 258 238 197
343 333 265 257 265 273 265 260 252 244 237 234 231 232 240 213 220 225 226 230 227 226 220 222 227 227 233 223 235 264 265 253 176 236 257 255 254 257
396 382 390 338 329 257 244 247 249 252 247 247 231 225 229 220 232 232 232 222 229 220 220 231 234 231 237 250 273 264 254 188 244 243 264 260 257 258
363 366 370 351 333 306 280 246 230 229 243 248 249 246 242 236 234 237 235 234 234 238 235 231 245 261 268 270 264 268 267 255 275 263 253 234 234 240
355 322 328 339 336 317 292 278 254 244 234 231 229 227 232 247 251 256 258 256 256 256 257 262 277 278 277 267 261 252 240 241 241 236 222 226 225 227
339 339 329 328 328 316 301 281 273 269 257 249 247 248 249 251 256 246 256 257 263 244 280 269 251 243 247 241 236 229 217 231 234 238 241 241 242 231
297 295 298 291 293 294 292 290 276 269 270 253 260 265 263 253 253 262 263 259 253 243 234 230 237 230 230 244 250 253 257 247 236 236 254 248 245 279
273 277 275 278 282 286 286 284 282 283 282 270 252 251 250 243 236 223 226 230 229 228 229 241 245 249 248 247 231 251 258 264 278 325 384 373 375 389
230 230 237 248 254 256 254 251 248 245 241 238 236 226 225 229 225 227 233 240 241 237 225 232 241 241 252 261 270 300 351 380 368 371 382 374 366 357
246 242 241 237 232 226 229 226 226 226 227 227 227 229 231 232 232 226 223 222 227 235 238 241 243 253 283 296 370 377 359 347 362 358 349 340 332 343
239 239 232 232 230 231 229 227 226 227 229 229 229 227 219 218 221 218 221 229 184 306 324 279 284 290 377 360 360 352 360 368 347 337 326 336 342 376
229 226 223 222 224 226 224 219 219 223 228 232 232 234 222 210 238 244 275 320 286 275 273 269 308 381 355 336 330 333 341 351 327 325 339 374 356 330
216 212 216 217 218 221 220 220 221 223 228 234 229 232 235 245 263 329 283 260 256 284 321 334 382 351 331 315 323 332 349 332 312 338 369 329 310 307
213 211 207 210 215 217 217 218 223 228 233 229 238 242 265 323 306 264 259 292 318 328 341 387 350 322 306 308 324 347 322 311 331 369 322 304 300 292
216 216 217 215 215 218 223 228 235 237 238 245 257 320 309 263 257 299 315 325 379 393 376 350 319 297 324 336 324 328 300 309 358 308 295 296 289 305
230 227 226 216 221 239 230 236 241 247 250 288 321 271 256 278 329 341 416 398 389 360 341 317 298 344 336 318 338 306 311 347 306 284 286 292 294 285
228 237 240 243 233 232 240 239 250 259 307 317 252 259 322 383 445 421 406 377 347 324 308 298 335 332 344 320 320 350 340 301 289 291 277 290 282 290
246 228 228 234 230 232 242 252 264 319 306 248 278 473 477 445 418 396 357 333 315 303 296 319 310 330 303 331 307 307 298 283 289 283 278 277 280 292
222 229 228 228 235 241 252 319 329 240 244 277 393 467 441 410 371 344 326 312 300 293 314 310 321 303 313 315 295 304 289 289 280 282 276 269 289 271
224 231 229 236 238 249 317 283 238 259 266 328 379 410 384 358 337 323 312 302 288 297 322 313 285 300 331 296 323 304 290 269 278 285 275 280 276 267
244 243 237 241 245 274 270 241 247 271 279 349 319 386 362 340 323 316 305 296 289 292 321 240 335 306 343 304 339 300 285 283 275 273 282 281 269 271
242 234 239 237 259 296 224 241 270 277 289 338 351 305 361 337 322 311 303 291 290 297 310 330 362 314 339 317 339 277 280 293 272 295 267 266 253 262

GFSNE_2pvu_pres_069.txt.gz
Presure
302 345 286 276 336 361 268 256 248 275 263 248 245 237 237 236 227 222 216 215 217 211 210 214 214 214 219 227 216 222 223 224 225 234 230 231 217 234
286 272 270 249 338 338 320 333 306 280 267 242 241 244 235 237 224 208 220 223 209 216 209 216 214 224 231 217 223 225 233 226 232 232 229 216 231 251
268 255 304 359 351 382 371 380 334 317 285 262 238 230 223 233 231 232 236 226 224 224 225 228 227 224 233 226 227 241 238 232 234 223 221 241 245 270
245 288 408 408 379 355 375 364 371 351 288 261 261 265 253 236 241 236 239 239 234 235 238 235 234 236 236 237 232 237 237 235 241 237 256 284 285 273
277 285 324 363 349 347 341 344 334 335 290 283 255 248 246 218 217 216 219 224 231 231 234 235 224 223 234 248 255 256 260 257 265 262 272 268 258 250
260 269 302 324 337 310 314 325 332 314 294 280 277 266 255 245 237 228 226 229 219 225 232 233 241 253 261 262 261 266 272 279 272 252 235 226 222 232
254 256 264 252 311 300 300 299 315 333 295 284 275 270 266 261 257 253 254 254 254 252 256 266 266 256 267 264 240 232 230 225 227 232 233 238 243 248
254 252 256 254 240 249 268 283 282 278 278 283 281 277 275 272 269 268 272 271 263 263 254 264 227 227 234 241 240 239 238 235 233 249 253 269 266 282
251 245 246 242 246 249 245 226 232 235 248 247 249 255 254 255 254 245 248 250 224 224 230 233 232 232 231 225 222 235 244 249 265 274 304 301 300 320
226 228 235 238 236 234 236 237 238 236 235 233 231 229 227 226 225 230 231 232 232 232 234 236 229 232 244 243 251 260 275 299 307 289 282 378 366 364
223 223 225 227 226 229 227 222 222 224 224 224 221 225 226 227 230 231 233 234 227 225 235 240 171 168 262 273 335 308 278 273 285 381 356 345 350 347
213 217 220 223 223 219 218 219 215 217 225 228 227 224 228 230 231 232 232 237 236 238 248 260 317 322 314 295 278 275 299 395 376 349 329 329 342 328
218 215 222 231 226 222 229 229 227 224 224 226 236 244 238 239 244 243 247 261 293 325 322 310 287 277 265 266 293 364 379 362 343 316 351 339 324 321
212 228 229 229 232 235 235 232 223 237 243 244 239 237 244 257 271 297 327 323 303 274 262 264 273 288 318 353 373 369 348 330 313 339 347 323 339 377
222 217 229 240 244 242 246 249 242 240 237 234 234 251 272 331 336 261 253 263 269 292 337 342 359 368 397 385 351 334 313 306 342 341 326 336 361 315
218 217 241 248 241 245 216 226 231 232 232 240 247 274 242 243 254 267 280 391 451 441 429 412 403 395 365 334 312 302 335 335 319 328 312 357 309 297
222 246 239 212 202 232 240 232 236 244 241 241 267 279 246 243 274 372 436 458 431 414 406 395 361 326 305 296 323 317 334 307 335 309 356 306 294 286
236 225 230 227 254 254 250 253 256 232 243 252 289 241 241 274 291 350 446 428 408 377 352 335 312 295 293 314 315 336 314 341 312 345 303 298 281 286
238 235 222 219 254 246 238 273 236 241 245 267 284 241 261 284 386 332 393 375 350 334 319 305 292 290 318 303 317 368 318 320 329 303 296 286 290 292
226 217 215 252 247 232 245 235 233 249 260 305 243 253 284 280 383 321 369 342 327 316 309 296 291 292 315 305 235 321 340 353 306 292 279 280 278 276
257 253 259 249 251 234 243 240 246 257 310 241 252 266 274 286 344 305 319 350 328 315 303 289 298 308 310 241 327 315 327 321 297 283 274 285 281 273
247 269 266 262 235 239 238 243 253 276 242 251 258 270 282 294 348 291 328 336 344 321 303 286 293 308 307 343 335 323 309 346 294 283 287 268 286 269
238 250 265 249 243 238 243 255 256 289 260 254 261 279 276 304 373 282 296 330 336 342 320 290 288 302 306 335 305 334 312 347 291 279 268 281 270 269

GFSNE_2pvu_pres_075.txt.gz
Presure
205 199 212 256 294 285 280 276 276 263 251 237 239 300 377 394 374 338 306 270 268 262 239 227 239 238 214 203 212 202 220 215 221 213 209 209 216 211
223 228 274 292 267 275 271 269 262 252 237 224 245 252 371 367 385 345 316 271 254 258 246 242 237 224 230 226 205 204 213 202 210 207 221 216 223 219
258 255 287 281 275 263 260 258 251 238 227 216 236 248 298 357 403 344 316 298 256 240 239 231 225 234 218 226 216 215 219 213 216 219 228 226 225 225
257 288 271 272 262 253 262 253 241 227 217 212 235 248 242 342 324 361 317 284 288 257 243 241 245 243 230 232 230 224 226 225 212 215 207 222 215 237
285 277 272 260 253 260 258 243 232 218 213 224 229 254 242 239 271 342 291 265 279 260 264 252 242 238 232 240 225 238 238 231 218 202 231 219 215 208
273 268 266 254 252 265 252 239 225 213 216 232 230 247 246 258 246 240 244 274 283 274 278 279 257 251 256 247 237 229 233 231 232 226 212 225 232 239
267 264 251 278 266 260 245 236 216 217 213 238 229 227 249 258 231 242 230 225 231 230 231 241 259 261 260 245 246 241 241 244 252 251 248 255 255 256
260 259 273 269 266 243 230 240 226 226 224 230 216 223 250 256 257 252 251 251 239 238 231 229 229 222 221 223 222 225 228 228 230 232 232 232 232 234
287 263 274 266 240 229 228 249 243 249 242 236 208 228 246 250 229 209 242 225 225 234 240 229 232 231 232 237 240 242 240 237 237 238 239 240 240 243
260 263 235 232 229 242 245 238 211 215 238 226 225 228 250 228 243 238 253 258 251 234 235 237 230 234 238 242 243 253 266 276 297 295 287 283 280 281
250 226 229 238 233 239 245 248 249 245 247 250 240 231 246 235 239 224 251 254 239 265 278 271 234 247 250 267 317 283 247 245 243 241 243 258 267 262
223 233 229 225 220 228 248 243 247 249 247 239 239 248 238 243 242 217 235 257 235 238 240 240 257 318 290 267 256 255 299 302 308 308 317 345 335 335
225 204 197 221 246 247 246 247 240 242 241 243 244 241 242 228 240 259 263 261 245 240 237 247 292 260 248 275 307 386 361 387 378 368 360 354 333 364
208 204 213 236 239 234 254 262 264 266 266 266 270 270 271 268 257 268 269 271 239 244 245 259 290 265 267 294 345 468 455 444 433 428 418 411 405 394
212 213 257 247 245 238 243 240 242 267 265 261 256 256 253 251 240 253 267 238 245 244 254 293 273 264 296 352 325 396 388 382 374 363 347 342 330 324
210 239 233 236 236 232 238 233 239 240 274 266 263 256 261 263 268 264 260 243 250 257 290 296 255 278 289 344 305 341 324 317 321 313 310 312 317 318
232 236 233 236 227 229 230 237 238 249 271 269 268 261 260 258 263 272 256 252 273 321 303 252 267 286 281 337 291 345 319 306 304 303 333 318 317 333
228 225 224 234 236 234 230 240 241 269 278 276 267 253 262 269 250 249 255 306 287 302 251 264 294 290 279 332 281 307 337 311 298 294 315 322 344 346
220 221 215 227 236 233 239 240 269 281 278 259 255 269 250 249 282 302 304 278 291 305 300 293 295 290 281 341 306 285 348 328 305 286 304 318 352 312
226 225 230 233 234 232 242 267 285 275 264 265 251 250 287 301 298 287 324 326 316 301 285 295 295 281 284 334 313 281 294 341 325 296 298 292 351 334
233 226 230 235 229 247 271 282 259 271 245 248 281 295 302 322 327 325 326 314 311 298 294 292 296 289 290 316 333 277 284 300 338 324 304 309 340 314
230 229 234 235 251 269 284 277 249 245 279 294 296 329 333 344 335 326 322 323 304 298 296 292 291 299 317 346 339 273 283 293 307 330 323 307 324 322
230 236 243 251 293 279 271 243 268 277 300 293 336 333 356 338 325 323 316 307 300 301 292 293 303 332 333 321 305 287 286 294 304 317 340 302 327 315

GFSNE_2pvu_pres_081.txt.gz
Presure
172 175 165 177 172 181 189 192 205 268 253 236 249 293 284 274 283 271 262 244 255 257 253 221 378 320 302 291 272 259 248 260 240 229 219 227 226 214
166 172 176 182 188 183 194 229 251 253 246 243 253 285 281 278 272 269 242 236 253 260 268 212 254 225 298 273 257 259 243 240 244 227 233 217 224 230
175 181 192 198 198 206 249 238 254 248 249 250 292 280 268 285 273 240 235 250 246 252 208 218 268 244 226 260 268 254 230 233 251 256 250 241 220 218
194 194 196 207 211 239 251 254 244 252 241 251 278 263 287 259 230 242 251 245 253 253 263 254 248 257 252 249 245 250 253 258 247 235 245 242 231 227
216 219 221 215 235 264 253 241 252 246 247 282 264 271 255 234 243 242 226 252 255 261 253 255 260 239 244 232 251 258 243 240 236 259 237 225 235 244
239 253 255 242 257 251 237 249 248 243 280 272 271 261 240 231 238 229 236 260 255 258 253 247 251 251 241 235 228 253 243 253 231 236 245 247 242 232
269 252 265 255 244 244 236 249 257 274 266 255 264 241 229 224 207 208 245 259 243 262 265 261 256 245 244 239 240 233 210 251 240 238 232 229 230 267
241 262 255 238 240 239 239 254 267 263 252 256 240 232 230 213 204 233 251 257 245 243 243 265 265 268 267 265 261 251 260 241 240 241 239 232 237 238
246 247 243 240 232 251 261 268 263 253 252 247 239 232 220 215 226 248 244 239 239 245 242 241 275 268 260 253 271 269 255 263 274 266 252 242 239 263
239 238 243 243 253 257 260 258 250 255 246 240 230 225 232 230 228 239 241 238 240 239 242 248 277 274 270 269 267 265 262 253 265 272 282 274 241 249
238 256 249 265 257 260 251 251 251 249 241 230 225 218 238 240 237 234 233 238 230 242 249 272 283 278 274 272 273 267 264 264 277 278 277 267 249 262
268 263 261 258 256 243 248 259 248 236 229 226 220 237 235 231 228 228 229 238 234 244 252 281 287 285 277 269 265 270 277 271 258 265 272 333 299 314
261 261 253 248 259 248 244 248 238 230 229 235 234 233 229 225 231 230 235 235 248 253 290 287 265 270 274 270 266 266 273 283 303 310 309 286 297 256
249 253 253 252 280 243 243 238 233 239 234 231 230 223 224 226 230 238 233 247 248 290 281 270 270 260 269 298 309 319 338 321 303 312 291 310 301 298
248 252 267 264 251 238 237 235 231 230 228 218 222 219 230 233 237 242 242 246 283 276 262 262 278 308 354 350 348 363 344 331 328 320 309 297 296 292
238 233 234 247 246 240 230 229 222 217 219 221 226 227 235 245 238 241 249 282 272 257 271 304 344 339 342 356 353 343 334 328 331 322 299 291 287 292
239 242 237 232 228 226 220 215 217 220 225 224 227 238 239 238 241 268 279 261 255 300 306 336 345 341 351 347 330 330 326 331 333 321 307 297 285 293
235 223 224 225 215 214 216 220 221 218 219 236 246 238 235 238 279 278 258 264 294 313 340 319 333 340 350 321 319 319 321 325 316 306 303 294 296 292
225 222 215 213 216 217 222 218 216 225 230 240 237 237 246 288 275 251 278 289 295 324 299 340 339 361 323 310 317 328 321 313 312 307 306 305 291 292
215 215 217 221 225 216 215 222 226 227 238 239 240 265 297 267 250 272 284 290 306 282 342 338 357 339 325 320 305 303 303 297 299 300 302 304 307 309
214 218 224 216 216 219 221 225 226 236 237 243 276 299 263 250 267 279 295 288 275 328 338 333 352 326 318 303 298 302 314 331 341 360 367 370 380 370
219 218 216 217 221 225 223 227 233 238 243 276 295 242 259 267 278 293 277 270 301 322 338 342 334 315 303 315 341 377 374 359 359 356 355 345 336 347
217 216 215 217 221 225 230 231 241 249 272 287 245 261 270 278 296 269 271 291 305 347 340 348 314 304 329 377 347 339 363 368 378 380 383 391 389 380

GFSNE_2pvu_pres_084.txt.gz
Presure
183 171 166 188 188 184 190 192 196 189 207 209 244 256 256 256 255 253 298 278 281 245 245 255 254 260 273 270 268 295 284 290 314 279 266 250 231 235
176 185 184 187 178 191 176 191 188 194 226 242 254 259 246 253 256 287 282 275 254 240 252 230 241 262 264 267 254 273 227 291 277 228 257 239 241 229
186 187 179 166 185 181 184 197 211 237 261 252 249 247 250 241 268 278 277 262 243 235 233 227 248 255 257 252 255 258 280 257 264 252 258 228 245 242
197 168 207 203 191 214 225 246 235 238 237 239 251 254 247 243 285 264 268 251 238 231 217 207 254 234 268 266 252 240 254 251 245 283 236 260 245 228
199 223 199 230 203 229 249 243 241 262 239 255 240 244 245 280 267 261 251 241 236 227 211 215 259 250 243 244 267 264 251 243 256 241 248 256 231 260
186 187 200 245 247 237 249 257 234 257 248 247 246 244 273 266 257 254 242 239 236 224 219 249 245 242 246 244 244 242 271 258 245 238 238 234 233 248
232 249 255 258 239 253 259 255 241 232 237 240 256 251 267 252 259 246 239 232 228 246 242 234 239 245 250 245 241 242 270 275 271 256 250 240 233 232
244 249 255 236 252 270 251 263 240 236 248 267 263 266 255 259 252 240 231 227 243 245 241 237 231 235 241 246 242 248 285 281 274 264 274 266 259 250
259 255 254 260 252 257 253 235 241 235 265 264 264 250 256 250 242 231 228 227 241 238 230 230 236 237 235 246 249 264 278 286 278 275 274 265 260 258
257 272 260 261 254 243 240 236 241 263 265 266 246 248 255 243 232 230 232 236 233 229 227 234 234 243 243 251 255 293 287 282 288 282 281 282 282 276
259 267 258 235 237 236 238 264 264 260 251 256 248 259 244 232 234 236 231 231 224 225 233 239 244 245 250 261 300 290 283 275 276 278 277 275 275 277
247 235 241 244 242 269 264 261 250 249 251 252 251 241 236 230 229 230 224 224 227 232 236 250 242 247 254 284 284 267 261 268 272 288 295 297 300 301
239 239 240 264 261 260 251 249 251 263 257 243 237 236 230 228 222 218 227 231 233 239 249 243 247 273 284 270 254 283 326 362 356 350 355 356 355 352
246 266 257 258 251 253 249 249 251 247 248 240 231 227 221 217 223 227 226 239 239 241 241 250 283 278 260 271 341 350 335 343 349 345 365 351 349 339
246 253 252 267 261 251 242 238 236 239 231 226 221 217 225 225 221 220 227 242 247 246 267 282 272 254 299 325 310 295 349 349 364 355 339 338 328 327
248 244 258 253 252 246 240 239 227 229 221 216 222 220 219 218 218 225 240 242 245 285 288 267 251 289 297 299 287 345 344 372 359 340 322 316 319 325
242 245 249 248 239 237 231 227 224 216 218 219 220 217 217 219 225 235 242 245 307 285 263 253 285 295 275 295 343 340 364 355 327 322 321 316 320 317
229 235 242 240 237 229 223 215 216 216 222 219 216 218 223 225 228 240 243 278 286 254 259 282 294 275 280 306 344 343 348 327 327 324 317 306 306 314
227 227 234 236 236 213 215 213 217 222 216 216 218 224 224 232 237 250 276 295 245 263 281 295 270 286 288 311 338 345 344 322 312 300 301 303 299 302
217 231 232 222 215 215 216 216 221 217 216 217 221 224 229 237 245 286 303 249 264 284 291 282 277 296 299 329 333 341 321 306 313 338 357 371 369 362
214 228 231 216 215 217 216 216 219 218 219 221 225 231 238 249 280 289 246 272 283 290 278 284 293 285 280 347 338 326 309 332 376 330 331 343 351 356
218 224 228 219 219 216 216 218 218 219 223 220 228 232 244 267 289 253 286 287 295 282 301 271 272 277 290 346 338 308 333 348 327 336 377 353 324 327
215 211 217 220 218 218 217 217 219 218 223 229 240 253 269 251 255 287 279 298 287 272 266 277 277 324 345 347 316 324 348 335 329 327 357 347 337 357

GFSNE_2pvu_pres_087.txt.gz
Presure
179 148 171 182 190 179 173 170 191 178 187 197 161 189 193 203 248 257 250 264 236 250 283 274 262 246 242 229 237 251 276 276 267 272 295 305 310 269
187 180 179 174 174 176 171 176 190 179 201 207 177 207 229 239 248 252 260 238 254 276 270 262 249 247 240 225 215 241 252 274 269 265 280 283 301 275
172 197 194 200 172 160 174 194 182 187 185 195 204 226 232 246 230 250 243 249 266 269 260 262 250 243 237 223 250 254 247 256 269 267 265 284 285 271
168 151 182 164 183 175 179 186 197 206 195 213 197 241 257 237 246 255 238 271 271 261 260 256 244 238 231 248 244 246 247 245 236 245 263 262 276 264
205 173 176 203 182 181 190 189 184 198 228 260 238 257 252 249 261 241 239 270 257 260 261 250 242 232 231 238 241 238 236 236 242 239 246 251 265 233
167 173 173 179 191 193 190 202 209 236 238 247 256 251 253 253 241 240 267 269 253 256 252 244 235 231 234 239 235 234 236 237 235 244 244 254 282 263
159 234 233 211 256 201 208 212 236 255 260 255 257 254 249 240 235 269 264 249 249 253 246 236 234 238 236 238 230 233 236 242 245 249 249 254 286 282
204 273 233 207 248 212 241 275 264 254 257 253 251 248 238 240 267 259 249 259 259 244 236 241 235 235 233 227 235 236 250 250 246 250 262 297 295 292
253 266 226 247 251 257 249 264 263 250 256 248 240 244 250 264 258 251 256 253 243 234 236 231 232 225 233 235 239 247 245 246 250 265 300 302 299 291
291 288 232 268 252 253 269 254 238 253 242 238 243 272 258 252 257 254 252 243 234 232 230 225 226 235 233 235 243 240 242 253 290 292 284 267 253 256
266 270 251 268 272 256 242 251 249 240 240 251 265 255 252 254 272 249 240 235 228 223 221 232 230 229 231 251 250 252 289 288 283 260 259 276 306 308
276 278 253 250 264 251 245 233 249 246 271 261 250 253 265 241 244 239 230 223 221 228 228 227 227 228 248 250 272 295 287 275 258 313 331 367 315 332
244 266 265 256 239 234 239 247 272 258 253 253 249 241 239 241 227 226 218 218 226 222 223 224 226 238 247 281 295 277 259 269 312 300 311 315 355 358
246 250 234 244 246 243 262 256 252 267 264 256 249 242 233 227 224 217 224 219 219 219 223 220 230 248 270 296 274 250 275 304 297 293 352 360 369 379
251 238 237 244 259 251 250 247 261 253 253 246 237 230 227 225 217 222 219 217 218 223 222 231 243 264 304 279 251 276 299 295 293 295 347 357 361 354
251 249 243 253 242 244 244 246 249 249 240 236 229 224 217 216 218 218 215 214 220 225 232 245 266 306 274 247 277 302 294 301 301 281 350 352 347 327
253 260 249 238 238 242 238 234 241 240 239 233 224 215 216 217 217 216 214 220 224 228 237 249 296 253 249 292 297 293 299 292 285 292 349 345 335 320
245 238 230 235 238 236 235 226 231 233 228 212 215 216 216 216 218 214 219 218 225 235 247 268 277 250 285 294 287 300 278 277 284 292 348 343 312 308
234 231 235 240 233 235 230 218 226 231 222 215 217 218 216 217 216 217 216 226 233 242 267 296 245 286 276 281 278 271 277 288 299 340 353 313 313 351
231 237 233 232 228 236 229 212 218 224 224 217 223 222 216 218 214 217 224 231 240 257 294 248 287 290 273 274 267 282 287 284 343 361 320 326 341 328
234 231 230 229 230 235 232 212 218 215 220 223 233 217 219 215 222 224 230 238 257 274 252 301 277 278 265 272 272 279 293 310 364 330 328 334 333 329
232 232 232 231 229 232 218 230 213 221 217 222 219 216 217 223 226 231 237 251 278 262 297 273 288 270 269 273 279 286 300 359 346 322 341 325 318 322
246 244 242 232 236 233 238 212 223 215 220 216 217 217 223 225 232 237 258 277 277 289 283 293 273 273 282 285 293 311 357 343 335 338 321 303 304 315

GFSNE_2pvu_pres_090.txt.gz
Presure
185 181 179 172 151 179 186 180 185 135 179 165 181 168 156 201 189 217 207 209 225 253 250 264 243 287 269 268 263 251 244 236 244 253 256 256 278 270
191 190 181 189 193 186 187 177 188 163 127 195 177 184 194 198 242 229 226 211 255 256 251 246 244 280 264 269 255 247 240 245 241 245 255 250 254 273
198 199 197 190 201 149 148 160 198 147 192 157 181 209 206 241 222 228 244 257 244 254 255 259 273 265 260 260 253 242 233 238 245 241 237 237 244 250
108 200 207 202 196 158 175 199 195 161 157 190 238 238 238 209 207 246 248 250 254 255 240 252 274 255 259 254 245 241 238 239 241 235 242 237 235 247
193 190 194 191 177 199 202 202 212 195 243 258 204 210 210 267 233 239 253 254 249 238 253 268 264 261 258 251 241 242 238 235 235 230 231 235 236 242
190 195 198 203 204 213 213 224 199 217 214 219 236 246 264 237 239 256 253 253 242 255 258 253 261 255 248 242 241 233 231 227 228 233 232 240 256 248
199 203 208 217 214 257 224 254 259 249 237 262 267 260 261 262 248 247 251 233 258 263 250 279 255 250 242 238 231 225 221 234 235 242 250 250 246 246
204 144 238 266 260 261 263 259 252 261 292 257 272 258 265 246 243 255 235 272 259 254 273 258 245 240 233 229 220 230 225 232 236 255 254 254 257 273
262 252 243 217 259 257 279 281 278 268 265 252 260 257 252 243 253 246 266 258 251 275 251 243 237 229 223 233 227 227 230 231 240 255 269 299 301 296
262 258 272 260 288 297 291 298 275 266 263 267 251 239 251 244 245 272 248 253 247 237 242 232 226 222 231 225 228 229 228 234 253 291 304 291 267 261
263 316 325 302 291 287 280 277 262 271 251 245 244 243 235 266 258 253 252 243 241 238 229 225 222 229 222 223 224 223 233 254 306 297 286 253 261 291
284 243 266 288 278 278 268 277 235 256 247 241 235 235 269 254 275 252 248 243 237 228 225 220 225 218 221 219 220 231 246 306 307 285 250 262 297 307
310 296 292 288 281 263 249 256 244 240 229 241 266 256 257 254 251 251 241 238 225 223 221 223 216 217 217 218 228 238 256 305 256 251 279 301 301 276
260 269 262 254 263 267 245 238 238 235 237 263 251 257 255 249 240 238 240 231 216 218 219 219 217 215 218 224 234 248 291 276 253 294 287 295 306 291
272 251 263 259 242 238 246 240 231 230 235 248 243 240 243 244 239 237 228 214 219 214 217 221 216 217 220 229 242 261 297 248 272 283 294 284 277 281
244 240 244 236 246 247 239 239 240 254 243 240 237 232 231 231 231 224 213 214 218 215 219 217 217 219 227 237 248 274 262 259 294 283 279 270 275 288
249 250 251 251 250 235 249 257 244 237 236 238 235 233 225 227 230 223 215 217 218 223 217 217 219 226 235 247 263 275 259 293 291 275 269 275 282 296
245 254 246 248 260 258 245 236 229 230 236 232 235 235 217 218 228 221 219 223 219 218 217 219 225 232 240 258 276 290 290 274 280 270 269 277 288 290
264 266 261 251 240 237 227 232 229 232 236 230 232 237 217 216 214 222 215 217 219 216 220 224 230 238 250 279 302 290 279 295 269 272 278 290 341 353
253 247 239 236 234 231 229 230 233 229 229 230 230 236 223 232 212 217 219 221 217 219 223 229 238 248 273 290 284 292 286 279 285 274 290 314 356 347
243 238 238 236 235 229 231 230 235 232 231 234 234 234 222 214 221 219 220 217 218 223 230 238 253 293 288 270 289 293 280 276 281 288 306 364 346 324
241 235 234 233 234 225 233 231 241 241 241 240 234 230 234 219 221 216 215 217 220 227 238 257 294 278 293 290 307 289 278 281 290 309 368 358 355 325
243 230 234 230 233 233 238 238 240 242 238 238 231 243 217 221 215 213 219 218 229 238 278 284 276 287 281 305 279 274 281 287 301 302 310 368 322 331

GFSNE_2pvu_pres_093.txt.gz
Presure
185 190 189 187 175 191 165 187 198 124 175 157 194 174 186 193 235 204 206 229 218 223 230 236 263 251 260 257 252 276 258 259 254 251 244 242 233 249
165 145 188 172 189 195 184 175 190 199 183 186 194 195 189 209 193 221 221 235 228 243 219 233 242 255 255 244 281 267 268 261 251 242 241 241 244 238
200 200 186 186 198 182 149 198 183 197 185 186 192 195 187 197 179 214 229 239 230 220 254 263 254 253 246 270 263 264 262 247 249 243 244 238 239 235
173 204 200 205 166 172 172 174 182 181 191 190 194 188 203 212 212 271 252 275 258 252 243 255 235 252 240 264 268 258 246 253 245 240 238 236 233 233
175 204 171 197 175 184 181 183 189 190 191 200 203 200 215 234 283 281 286 256 267 260 253 253 245 241 267 260 266 253 249 242 238 233 229 230 234 235
178 150 182 182 183 186 191 192 192 146 205 208 230 241 272 251 276 262 258 266 245 257 252 246 247 270 259 269 252 247 237 230 227 228 230 228 230 234
188 188 191 194 195 199 199 165 202 210 224 255 259 260 266 276 289 266 264 247 254 247 243 243 275 256 270 248 245 235 228 225 230 227 229 231 234 239
205 207 179 211 213 210 214 218 260 247 244 252 247 264 275 286 253 263 262 249 231 244 235 269 248 244 232 240 232 229 221 231 226 227 229 230 238 256
224 220 222 225 231 243 246 250 253 245 265 273 275 287 257 264 258 263 248 242 245 228 265 247 250 244 241 231 228 218 228 224 224 225 227 231 242 323
246 251 251 255 259 260 262 265 264 287 274 283 289 279 266 262 255 244 239 239 240 262 265 256 246 239 232 229 218 220 230 221 220 223 225 233 259 308
310 326 312 307 301 309 294 295 315 299 290 281 278 262 266 251 236 239 232 259 251 257 253 247 238 236 224 218 218 224 224 219 219 222 221 244 315 288
352 311 300 307 312 316 294 305 282 285 277 283 272 251 251 239 235 228 259 260 252 249 238 234 243 233 224 222 216 222 220 218 220 220 236 254 288 256
316 323 314 277 316 312 299 291 291 287 275 258 244 246 239 236 230 230 256 249 247 250 243 239 235 218 221 217 216 222 218 218 221 233 243 276 280 265
303 294 289 299 265 284 274 262 254 249 264 249 238 232 233 237 233 251 243 230 236 233 234 229 218 216 218 217 223 218 217 218 229 234 252 276 281 303
276 275 268 272 256 253 256 247 245 239 243 239 231 235 228 231 245 237 240 231 231 223 225 230 222 220 220 225 218 217 216 225 232 245 271 281 307 287
261 259 265 250 246 249 244 240 242 245 245 238 235 237 254 242 228 233 232 231 232 220 215 221 215 220 221 219 216 219 222 230 244 262 283 300 282 303
253 251 252 250 239 260 246 243 241 244 251 242 234 250 234 227 225 232 229 228 235 232 208 232 209 217 220 216 217 221 229 239 260 286 289 267 306 287
258 256 253 244 246 242 243 248 251 245 247 256 246 230 227 226 229 231 232 229 233 233 230 207 217 216 217 217 218 228 239 255 288 266 285 296 282 279
245 261 261 260 248 245 253 261 261 258 244 238 229 226 224 227 229 229 231 234 231 225 233 217 216 218 215 221 229 238 248 281 257 292 283 281 287 277
246 261 252 257 254 248 259 252 245 237 235 233 231 227 228 228 230 231 233 236 233 234 220 217 216 215 217 223 236 247 277 265 288 301 313 278 284 275
254 255 264 260 256 258 249 242 239 237 235 230 223 221 229 226 236 241 246 241 236 235 246 214 214 217 221 231 247 281 264 279 306 312 314 281 274 284
263 250 243 253 255 250 247 238 231 231 228 231 228 227 238 240 242 243 243 245 252 214 216 215 218 221 230 253 275 278 291 303 318 324 295 277 276 286
254 258 250 242 250 241 243 246 236 233 231 233 238 229 241 240 243 250 259 214 214 215 214 218 226 239 272 270 262 297 305 322 330 326 288 279 279 295

GFSNE_2pvu_pres_096.txt.gz
Presure
194 158 194 190 190 186 193 198 195 186 197 201 194 184 198 170 166 189 191 196 194 204 206 229 226 236 271 262 256 256 250 245 275 264 269 249 251 245
170 188 190 181 152 162 159 203 207 189 169 188 190 202 174 200 183 195 161 199 204 204 228 248 258 276 247 262 254 254 264 263 271 269 256 253 244 242
162 163 176 195 174 167 173 163 168 172 173 184 165 173 185 187 173 196 205 209 208 234 257 270 271 265 261 258 250 252 246 272 270 263 251 241 242 231
170 164 163 160 165 176 167 171 178 178 173 172 185 182 185 194 184 205 204 214 244 262 249 284 280 266 249 251 243 242 280 270 266 252 242 236 234 237
191 183 165 166 179 179 178 159 148 166 184 190 188 193 197 196 207 208 214 260 261 256 272 271 265 245 252 240 241 268 257 260 244 241 233 231 227 233
197 162 191 188 235 172 194 164 206 204 195 193 199 201 205 211 214 251 250 252 262 283 284 245 256 229 243 250 240 253 263 245 242 233 231 226 232 227
165 196 211 142 212 196 205 203 204 208 206 204 209 216 216 223 249 261 262 271 263 280 265 253 245 242 244 236 263 260 247 239 234 230 222 227 226 222
217 217 215 214 217 218 220 220 220 221 221 221 222 226 249 264 260 258 276 303 280 275 266 250 232 241 241 275 255 240 243 240 233 228 217 231 227 222
225 227 229 230 229 225 226 226 229 229 234 241 248 250 280 283 291 275 289 260 275 253 249 238 239 239 255 259 247 242 236 235 223 216 218 227 227 224
247 251 255 256 257 258 262 255 256 254 271 305 299 288 294 283 309 291 280 277 261 250 234 239 242 250 252 248 240 230 239 233 228 220 215 224 223 220
315 303 309 312 311 329 298 317 287 291 292 283 284 300 317 302 284 270 261 251 248 233 236 234 257 250 238 241 244 238 235 222 215 218 217 223 220 219
343 340 342 332 342 296 335 325 324 293 289 310 307 283 269 256 267 245 256 246 234 238 230 232 246 238 239 231 230 228 226 219 216 221 225 220 219 219
324 327 318 312 306 309 327 309 306 309 271 300 277 265 277 274 270 246 243 235 227 230 248 240 244 230 233 225 221 226 227 224 219 221 220 219 219 223
299 310 296 302 294 288 283 291 296 282 284 264 274 270 261 243 245 247 237 228 230 234 241 232 235 230 233 228 217 214 215 216 218 218 221 218 222 230
300 291 282 278 274 273 270 262 264 266 257 255 260 258 234 229 239 234 222 227 243 240 231 230 230 230 228 233 234 206 215 209 216 219 217 220 229 243
277 274 268 266 267 266 266 257 264 261 244 243 243 239 237 245 241 230 242 245 236 227 226 228 231 230 227 227 231 213 231 214 216 218 218 226 241 258
269 268 261 261 257 250 252 245 247 244 239 240 244 240 242 237 236 240 235 243 228 226 225 227 227 227 227 230 234 226 234 217 218 215 222 239 251 283
252 249 249 256 259 261 258 251 251 242 237 255 246 239 239 251 246 250 250 236 225 223 223 227 225 227 231 240 241 235 216 218 216 221 233 247 279 285
249 237 248 248 242 245 248 250 252 251 249 243 248 251 258 263 254 248 234 231 226 225 229 226 230 237 240 236 239 253 216 216 222 230 241 275 272 302
257 250 248 243 242 244 249 249 252 249 254 247 242 258 249 235 226 228 227 227 218 223 226 231 231 241 240 246 256 216 217 220 231 242 274 271 299 310
265 262 263 258 250 248 257 246 252 255 248 244 249 241 238 233 231 228 227 229 225 226 233 245 241 249 255 229 214 224 228 231 256 269 267 308 329 327
267 266 262 261 258 254 259 254 248 245 252 251 247 239 234 229 227 226 232 226 240 233 245 248 253 217 216 214 244 234 228 247 265 271 287 340 338 337
263 253 252 253 251 261 267 254 252 245 241 247 241 243 241 236 231 229 228 247 239 245 251 246 215 214 254 237 225 228 265 261 265 277 291 298 299 282

GFSNE_2pvu_pres_099.txt.gz
Presure
187 186 190 182 185 193 179 197 175 174 161 165 173 163 168 171 178 177 183 182 184 192 189 196 202 196 212 237 258 287 266 266 258 252 251 280 271 269
175 180 179 185 189 182 179 134 191 197 198 187 203 190 209 199 159 154 199 189 174 196 186 200 194 213 230 252 244 291 268 263 250 248 269 265 270 252
170 168 179 190 185 191 171 181 186 188 189 180 217 224 151 212 162 212 215 207 199 224 207 195 213 222 243 263 292 270 244 251 253 239 268 270 250 247
173 173 180 181 174 199 201 183 200 183 133 179 227 195 188 187 219 218 202 201 220 204 204 215 224 263 260 259 278 262 254 247 245 271 257 256 244 242
172 175 179 176 176 178 168 144 177 138 185 196 210 204 203 201 193 204 207 203 208 218 221 235 250 254 267 242 258 250 246 243 245 265 270 252 241 234
193 188 198 188 161 192 179 197 202 214 201 201 202 204 211 213 219 221 221 219 223 228 234 243 273 272 264 271 260 251 243 234 268 252 243 243 239 232
193 192 204 216 210 212 212 214 214 212 215 215 216 215 219 224 223 224 227 230 264 242 265 268 272 268 261 269 235 242 238 259 265 255 243 238 238 232
233 229 223 220 222 226 225 228 228 227 227 228 216 227 231 236 237 245 241 248 284 272 271 273 292 275 268 251 240 239 231 264 251 243 240 235 246 226
246 244 241 239 238 238 239 236 236 238 246 262 277 266 269 258 251 251 270 287 295 282 293 297 266 264 247 240 235 233 261 251 242 234 233 241 239 217
251 248 247 247 251 260 276 283 284 316 293 329 287 290 289 271 268 259 289 283 273 302 287 265 256 240 239 226 236 227 248 237 243 233 234 231 227 219
267 269 272 325 275 276 266 279 266 338 330 328 326 276 285 283 290 288 273 306 285 279 272 253 243 247 235 232 238 243 240 230 230 226 224 227 228 224
256 262 257 262 332 336 333 338 331 336 332 293 313 310 317 314 273 286 291 282 253 259 262 255 246 235 227 231 235 240 232 226 229 228 220 217 218 216
262 303 308 306 306 316 308 307 309 307 318 309 301 299 295 293 280 269 275 262 267 264 250 232 228 226 224 237 237 230 230 228 230 233 234 221 209 216
283 291 288 288 309 291 288 292 290 290 283 287 280 278 282 276 276 267 265 254 257 247 234 225 237 222 225 234 228 226 228 230 229 228 230 233 214 230
277 268 268 267 292 275 272 274 273 274 268 272 255 258 262 263 262 260 245 252 232 235 234 238 224 228 236 224 225 225 227 225 227 229 236 241 236 239
264 262 252 256 253 276 265 268 254 259 256 251 256 258 259 259 231 237 236 239 223 242 237 226 234 229 232 228 224 222 226 226 228 235 246 241 242 224
252 264 255 254 242 249 259 260 250 248 242 242 244 241 242 241 234 238 246 241 242 235 234 234 227 242 231 222 218 221 226 228 235 238 241 245 256 217
258 259 258 267 252 252 243 248 239 242 246 254 250 246 243 241 235 242 244 235 236 237 255 250 246 238 217 218 223 227 228 234 236 241 247 247 217 232
263 261 264 270 262 252 249 245 237 245 246 241 245 249 259 255 249 244 243 245 253 257 243 241 223 222 226 222 220 228 231 243 243 255 217 215 243 237
292 285 255 270 266 258 262 250 248 245 240 242 246 251 259 250 247 252 239 257 247 237 227 226 224 219 226 226 228 232 239 245 249 214 223 243 231 240
269 264 268 262 256 255 265 263 258 259 257 251 247 253 246 255 251 243 240 246 238 234 226 223 224 221 231 225 236 241 247 241 209 253 226 231 235 261
259 259 262 268 266 258 258 260 262 259 255 253 250 245 253 246 243 249 249 248 235 231 230 229 223 227 225 240 238 248 238 215 247 216 233 230 255 256
254 252 250 249 249 246 246 265 260 252 252 248 243 256 260 251 247 243 248 245 239 238 237 238 234 228 235 243 247 237 231 221 214 234 230 235 262 254

GFSNE_2pvu_pres_102.txt.gz
Presure
170 161 152 162 169 185 166 164 177 177 172 166 185 187 182 179 170 173 132 186 145 178 182 199 201 200 195 195 210 215 218 243 259 290 270 265 260 244
176 189 176 177 185 153 164 173 160 164 187 164 168 165 167 175 164 145 170 183 165 182 191 192 207 195 209 214 222 220 238 242 266 275 268 254 250 273
159 163 186 181 184 195 191 192 212 179 165 172 174 178 180 181 183 167 186 194 213 211 216 211 204 209 218 217 224 249 244 266 284 269 243 252 247 274
183 189 190 188 196 202 200 204 229 164 170 173 191 187 182 207 193 209 199 208 203 207 207 211 218 224 217 231 242 253 235 272 280 269 256 249 256 265
189 190 192 193 192 195 198 204 206 234 209 201 233 227 201 211 214 213 216 216 218 219 221 222 220 226 236 230 247 250 267 270 261 255 240 246 272 261
187 186 205 198 202 196 193 190 196 212 194 194 215 221 221 225 226 226 225 226 223 222 226 230 237 244 249 238 239 269 286 262 256 242 246 272 262 255
225 212 241 198 202 214 206 226 228 225 223 234 241 239 240 237 236 232 229 228 229 238 260 253 263 233 262 291 283 293 264 258 250 243 239 263 254 245
265 259 164 252 259 254 263 261 259 254 251 251 250 247 137 240 241 245 259 273 285 290 281 277 294 287 286 269 271 263 259 242 238 237 232 256 242 240
270 269 272 216 272 271 268 266 263 262 258 260 265 270 275 302 280 299 286 265 252 297 271 284 276 248 266 289 266 256 240 237 233 238 246 243 241 235
283 287 280 275 273 271 273 270 270 272 292 310 295 276 280 300 323 348 320 317 287 303 285 279 269 274 284 268 258 253 233 229 235 231 250 234 229 230
272 265 265 263 270 278 275 278 261 264 317 342 334 340 334 329 349 342 332 319 303 263 279 290 282 278 265 259 243 237 234 238 222 237 239 231 227 226
250 253 266 271 260 260 269 302 305 299 301 302 305 311 334 317 316 308 299 303 295 266 283 271 270 252 245 245 250 237 226 222 222 239 230 229 225 226
258 258 269 264 288 269 279 293 287 306 297 300 296 286 311 305 292 287 282 274 266 271 266 249 255 258 257 241 241 223 233 226 233 230 227 223 227 226
263 276 292 282 273 261 274 275 268 282 281 289 288 282 272 282 279 279 273 272 266 268 263 265 253 251 245 232 230 234 223 225 233 225 225 224 225 225
288 279 267 265 289 282 274 263 256 265 267 266 272 276 262 271 265 263 260 260 256 251 257 246 243 245 237 232 220 235 223 228 232 228 224 219 222 229
291 290 298 295 281 271 268 254 243 250 259 268 261 255 259 253 259 254 258 253 247 235 230 231 246 221 219 233 237 223 235 226 234 226 218 220 227 229
292 286 285 285 275 272 249 258 254 254 251 243 261 254 252 248 244 243 239 240 241 232 232 238 242 234 236 235 234 228 235 236 237 219 219 221 224 229
278 269 263 261 261 257 257 261 255 263 252 246 240 240 245 240 258 250 252 249 243 242 237 241 241 233 227 237 252 258 251 238 222 223 219 224 228 234
274 272 270 269 269 265 265 267 270 264 266 255 246 246 236 237 239 234 242 242 258 250 250 244 240 242 248 257 242 245 228 225 224 225 225 226 237 241
293 294 294 293 295 297 294 283 265 262 268 260 257 255 249 246 245 239 242 250 255 252 245 251 245 249 247 237 230 228 227 223 224 224 226 236 240 245
293 291 286 279 276 272 270 267 264 260 257 252 255 256 260 259 257 255 255 245 251 243 254 243 241 242 238 236 232 230 224 226 220 229 231 241 246 212
271 268 266 262 259 257 257 257 256 257 261 265 262 260 259 262 263 255 254 252 241 250 247 244 246 247 247 236 231 233 235 227 230 229 238 246 227 229
263 262 260 258 257 254 253 253 251 250 247 247 248 244 242 254 256 252 253 248 248 253 254 246 249 242 243 236 236 238 237 247 235 233 240 246 220 218

GFSNE_2pvu_pres_105.txt.gz
Presure
193 158 179 173 156 158 201 200 154 197 180 163 172 181 174 191 187 190 197 207 239 203 188 226 212 215 199 208 213 217 212 212 215 230 245 239 261 279
169 145 152 151 174 187 150 194 172 185 161 185 187 179 183 184 189 190 193 204 228 231 186 209 217 219 219 218 216 217 222 217 232 243 240 284 278 263
181 180 179 177 164 176 196 171 188 162 169 179 177 178 191 192 191 184 196 195 196 200 218 219 219 216 218 222 222 219 223 232 231 244 247 254 275 260
182 171 193 198 184 175 179 180 172 172 195 189 194 223 215 219 220 216 212 226 217 228 225 227 228 224 225 229 223 226 227 240 264 229 262 274 257 256
201 206 202 180 162 208 180 213 192 199 214 232 243 237 262 243 247 244 237 240 239 239 231 230 235 230 227 226 228 233 246 265 253 249 288 260 258 248
223 212 212 220 238 194 216 254 276 278 257 211 270 265 256 249 243 251 252 247 243 243 243 237 233 235 238 243 243 274 268 269 298 254 272 256 240 239
239 236 234 221 239 263 279 289 268 279 274 270 271 270 269 269 192 262 260 259 255 254 253 254 281 284 275 275 278 251 262 269 230 280 254 250 241 237
221 235 242 254 267 268 242 281 288 280 281 276 279 278 273 276 276 275 275 295 287 304 292 303 301 278 250 231 241 245 271 275 266 265 258 241 235 236
267 254 273 297 254 288 296 282 288 295 287 281 278 270 260 261 269 322 293 297 332 331 315 313 311 304 306 295 278 266 258 259 269 255 241 239 229 238
291 249 296 285 300 262 285 277 284 274 261 263 259 270 299 313 338 340 343 333 337 325 306 305 304 294 288 272 283 260 264 268 254 245 240 229 232 229
273 273 245 267 284 268 267 261 247 262 266 269 297 295 294 312 304 313 320 327 337 312 299 300 305 290 273 263 275 270 266 253 251 245 236 226 235 217
220 250 272 251 257 252 251 258 263 268 268 291 269 279 290 297 300 290 316 299 299 289 301 290 298 271 272 276 260 263 251 253 238 248 232 219 218 220
265 256 272 274 255 274 263 267 268 287 276 267 276 273 280 287 292 281 291 290 285 285 282 276 269 272 263 257 250 245 238 235 235 240 230 217 229 228
264 274 269 269 270 269 271 280 284 269 273 282 273 263 266 273 277 277 280 273 277 281 269 262 257 258 250 243 249 248 251 242 238 228 218 223 219 229
270 269 285 272 271 279 299 275 290 288 286 277 264 254 254 241 265 267 257 258 258 262 260 271 264 259 258 260 254 240 246 237 224 227 218 230 223 224
270 278 290 290 311 299 297 293 293 292 280 271 261 259 254 250 254 258 257 253 258 254 253 249 245 253 242 246 234 241 238 235 218 222 234 225 225 225
317 312 306 300 293 288 289 281 275 270 274 267 254 249 247 258 251 245 254 250 250 246 243 241 248 234 235 242 240 236 228 224 224 234 229 232 232 227
286 284 283 279 275 272 270 269 266 264 263 254 254 255 254 258 254 246 241 241 245 252 254 243 238 238 237 236 238 244 240 237 229 230 240 249 252 246
287 285 287 286 285 285 284 284 285 285 286 274 267 268 269 259 264 252 242 243 236 238 235 237 233 240 250 245 243 246 247 233 239 249 254 250 240 225
293 297 302 303 301 299 294 291 292 295 292 293 294 286 272 255 269 265 256 250 249 245 239 243 236 242 247 244 244 256 255 243 250 249 240 232 225 226
269 268 272 304 294 293 289 286 282 276 272 269 265 266 264 262 260 259 256 261 259 258 257 253 252 253 245 250 252 248 249 237 249 237 230 227 226 226
262 260 273 269 264 267 266 265 261 260 261 260 259 259 258 256 255 258 261 260 255 255 259 259 254 251 242 244 245 248 251 251 250 241 235 230 228 229
259 262 268 255 256 258 260 256 254 256 255 254 253 254 252 250 252 252 251 249 248 248 252 251 249 250 249 247 243 253 249 247 246 247 241 234 234 236

GFSNE_2pvu_pres_108.txt.gz
Presure
167 177 190 171 145 174 160 164 176 148 194 176 183 199 191 210 175 199 208 201 185 206 231 233 239 231 230 245 221 225 225 227 227 224 229 228 226 240
173 181 129 188 185 177 186 162 163 175 179 180 209 187 188 210 228 251 218 223 239 252 230 244 199 216 239 227 225 230 228 225 227 230 224 228 235 243
179 171 175 138 185 190 190 200 176 195 180 212 185 231 250 258 241 241 259 240 232 242 263 254 248 246 241 240 242 236 230 236 231 226 230 236 238 265
182 190 143 206 183 191 187 203 198 216 219 215 209 227 243 234 253 287 270 278 256 262 262 262 216 255 250 251 246 243 239 234 226 238 232 238 264 239
188 188 142 195 208 166 204 212 195 219 207 220 245 242 286 248 248 268 277 278 262 269 265 206 266 261 253 249 246 237 236 232 235 233 243 262 271 278
197 195 201 178 207 212 215 225 208 219 272 254 292 292 284 274 269 287 276 275 281 281 278 272 270 265 261 255 254 248 243 244 253 246 256 265 239 280
197 204 216 210 222 223 225 217 227 263 287 278 277 264 281 285 201 300 289 296 252 281 255 284 282 269 265 292 271 280 271 269 265 268 272 245 254 275
211 226 219 230 234 259 237 252 315 276 285 263 269 252 306 294 266 281 275 257 289 327 348 343 334 322 311 270 271 262 275 254 252 281 268 252 269 264
227 243 228 249 228 261 259 299 280 265 281 249 287 265 275 279 246 267 311 304 307 319 322 342 332 318 312 321 293 288 297 283 280 264 257 260 246 252
235 237 228 238 281 237 264 272 255 259 268 239 244 262 264 264 269 299 275 290 314 311 319 337 350 314 294 292 282 292 288 280 274 262 249 255 261 246
265 247 272 288 281 277 245 277 244 238 228 261 275 254 260 275 281 285 287 294 299 301 319 314 296 297 294 289 272 285 280 268 266 254 253 262 252 242
253 307 273 259 256 301 246 217 283 255 263 248 274 266 270 295 279 271 275 278 294 288 306 292 334 294 289 289 281 272 269 252 254 254 256 258 246 230
269 259 278 253 285 254 277 281 262 254 273 273 271 273 293 276 271 276 269 270 277 277 289 282 282 283 282 286 280 269 257 262 258 253 255 245 242 225
284 285 287 277 274 273 261 279 279 273 277 275 282 289 288 286 287 278 266 265 247 271 271 272 283 274 273 267 266 263 264 255 254 253 240 239 246 226
281 279 287 278 269 282 275 274 278 276 280 310 310 295 293 291 279 275 263 260 251 257 264 262 264 258 258 249 257 253 248 245 238 239 232 246 230 228
296 289 279 280 273 276 277 285 329 319 308 295 295 289 287 289 275 265 258 252 250 245 253 245 253 259 255 253 259 254 250 253 256 248 248 244 232 229
279 278 274 277 272 276 300 295 293 290 286 286 278 276 273 265 272 266 259 251 253 251 248 249 245 238 247 245 243 240 241 238 240 233 237 240 238 228
275 273 267 273 296 288 285 281 282 277 276 277 274 272 270 264 262 264 260 252 255 258 250 244 239 241 241 241 243 236 236 238 237 230 238 243 232 230
264 272 288 289 285 281 299 300 296 297 295 294 290 292 294 293 287 275 266 266 261 254 260 245 243 240 239 246 237 238 235 246 241 235 237 234 244 240
287 288 285 281 298 285 277 275 281 314 303 301 300 294 293 290 293 293 288 280 275 257 253 260 250 246 244 242 235 237 240 233 239 243 249 247 254 242
284 276 281 272 269 265 266 263 270 290 298 291 284 277 274 269 267 267 265 263 259 259 257 261 262 257 252 244 240 241 242 244 245 245 245 243 240 248
273 274 267 264 263 262 261 261 264 266 265 265 266 262 259 262 259 259 260 257 255 254 256 261 262 255 251 253 252 255 253 253 251 244 240 246 245 245
272 265 261 259 261 255 255 256 258 264 259 253 262 260 253 252 255 256 257 259 258 258 258 259 256 250 246 242 249 252 250 256 256 250 243 244 241 241

GFSNE_2pvu_pres_111.txt.gz
Presure
185 198 165 173 180 164 194 170 200 194 203 141 189 166 175 187 202 201 199 225 227 219 250 241 297 293 262 246 265 261 165 256 255 241 235 234 231 226
176 185 161 178 161 186 156 185 154 184 138 195 177 201 186 199 199 212 225 214 241 267 307 298 275 288 285 269 274 259 261 247 242 246 239 239 239 239
186 190 177 147 188 205 140 155 182 209 128 192 198 193 198 207 212 206 240 236 316 283 283 299 267 291 274 289 267 263 257 255 252 248 241 237 233 227
148 172 187 191 195 170 182 189 220 187 189 202 188 201 213 219 213 246 234 321 309 272 316 290 310 277 315 299 270 266 236 261 260 247 242 240 237 238
183 169 156 177 196 182 208 212 193 205 203 202 198 213 223 240 250 248 300 283 269 258 255 243 290 299 241 248 264 257 231 243 243 243 241 240 243 235
197 182 201 177 185 194 201 195 201 201 210 216 202 234 234 253 237 284 255 287 255 245 244 273 254 253 270 273 295 262 261 292 266 244 242 239 241 246
157 182 194 196 183 190 195 196 205 206 217 217 228 240 233 228 273 271 268 256 246 267 262 307 314 314 320 328 336 324 314 273 248 268 248 235 249 240
166 182 182 191 202 200 185 202 193 213 223 216 229 237 252 317 302 247 266 213 269 278 302 306 292 297 319 333 330 327 309 326 293 252 248 253 254 248
199 191 191 195 202 207 197 214 217 224 214 213 245 251 314 248 258 278 259 258 287 270 291 290 288 303 303 333 327 317 315 292 298 291 303 249 258 271
202 197 199 206 199 217 216 218 198 211 229 216 256 283 253 284 291 268 270 279 267 303 285 280 289 299 313 346 304 304 294 288 281 268 275 274 269 263
203 184 191 221 216 215 229 219 227 230 272 268 262 292 293 286 284 265 279 281 286 287 273 285 282 288 302 298 305 291 282 275 271 268 278 268 266 256
225 217 213 222 226 233 228 234 234 292 283 270 262 285 279 293 284 283 287 281 295 277 285 279 276 277 296 304 294 289 279 280 265 276 271 267 257 259
218 222 220 227 231 225 231 242 288 303 298 269 286 292 281 290 283 283 285 313 302 290 283 276 269 257 276 286 285 285 284 283 282 277 266 262 252 251
226 227 235 234 235 289 291 301 285 296 287 293 275 288 287 288 292 318 317 302 296 289 276 264 261 260 264 283 280 275 275 273 278 274 258 255 257 253
281 255 306 276 333 323 272 316 275 306 298 288 282 288 318 326 318 307 299 292 291 281 276 264 259 255 260 257 279 264 256 256 262 260 260 260 251 250
311 316 293 286 288 315 301 292 292 282 283 284 280 308 294 295 289 294 288 283 294 279 269 260 251 253 252 253 255 264 257 253 253 247 243 242 235 231
298 293 288 295 289 288 283 282 283 279 276 287 296 288 281 283 278 277 272 271 274 267 274 264 254 252 253 246 250 245 242 248 250 248 246 243 242 250
287 273 275 277 275 275 275 277 274 270 293 296 284 301 304 300 297 291 288 280 274 269 264 261 256 253 255 253 248 242 243 243 241 247 246 243 238 237
267 272 272 271 270 267 268 270 267 292 289 304 292 288 287 302 301 299 299 295 293 291 280 267 261 262 258 258 251 242 241 241 246 250 244 240 239 236
263 263 266 264 264 265 269 283 289 281 286 275 269 270 268 302 305 301 295 292 290 294 292 290 285 278 269 263 258 257 246 246 243 239 232 229 234 233
260 261 263 261 270 283 282 285 277 275 267 273 266 267 265 272 267 276 274 273 269 267 267 269 267 264 260 255 258 265 261 255 247 241 239 238 238 239
256 280 277 277 274 276 275 268 272 267 263 261 266 260 260 263 261 260 260 262 261 256 254 254 255 254 252 251 251 252 256 253 252 253 253 252 252 252
274 264 267 270 273 267 265 266 263 260 257 258 258 259 261 256 261 257 252 260 256 250 247 251 260 255 257 254 254 252 252 252 250 245 245 244 248 252

GFSNE_2pvu_pres_114.txt.gz
Presure
205 185 161 206 167 185 194 168 166 202 173 173 195 197 150 183 195 162 198 198 198 197 212 207 219 249 296 286 268 278 236 261 277 266 258 255 253 258
203 170 187 185 183 169 203 189 154 187 174 160 189 165 219 189 191 202 196 192 197 208 200 221 232 258 310 272 270 256 239 301 281 262 257 263 242 234
189 187 154 146 160 191 156 200 188 180 173 185 183 195 200 192 205 200 208 196 212 193 228 231 226 293 296 265 281 312 300 279 274 281 268 244 245 259
177 178 173 187 171 186 181 180 180 192 175 171 197 178 188 194 199 179 209 199 209 215 218 234 242 265 281 223 296 269 292 283 280 255 260 275 250 231
170 168 184 201 178 192 198 194 193 183 196 188 196 183 204 203 205 205 201 209 227 207 229 224 307 306 313 321 270 326 320 327 311 264 252 256 240 241
180 202 195 175 186 161 172 179 191 195 197 198 202 189 197 191 196 203 211 238 219 227 208 227 289 281 309 307 313 308 309 343 327 301 278 243 248 243
200 182 166 208 180 171 209 208 194 184 190 193 186 196 203 202 209 220 225 230 232 199 237 302 283 289 296 308 301 307 316 316 337 332 307 261 262 265
183 215 191 207 207 188 201 180 179 192 183 210 215 201 217 220 229 212 205 235 206 210 285 223 287 299 311 295 295 307 337 325 327 319 305 292 261 271
211 199 191 208 198 179 191 199 198 208 205 228 188 209 203 204 215 221 228 223 224 279 282 297 286 287 309 287 293 294 311 368 325 305 296 282 282 264
199 190 210 200 202 191 196 204 195 208 201 182 219 218 208 209 230 226 236 285 265 240 302 281 283 287 291 291 286 288 307 319 313 303 297 296 282 265
192 194 200 201 213 210 204 180 209 227 212 193 218 213 214 224 288 286 256 223 279 301 294 288 286 297 305 288 283 285 295 297 297 288 279 285 280 267
200 210 209 209 211 200 219 216 194 218 202 205 210 210 198 210 256 283 294 280 294 298 292 301 320 311 295 286 277 276 286 300 300 288 278 277 267 257
201 203 207 221 213 204 220 202 213 210 215 217 214 233 255 264 297 307 293 293 297 329 334 324 308 298 290 278 267 269 272 282 287 284 279 283 265 266
206 220 202 216 216 214 193 206 206 215 201 234 253 276 307 306 285 292 284 294 317 319 313 305 301 290 280 278 265 257 266 284 278 287 285 284 285 284
193 200 214 193 203 204 180 213 184 256 331 307 315 310 292 293 284 289 287 304 294 294 301 292 290 288 278 274 260 256 262 264 274 266 270 267 274 272
219 151 203 218 233 229 325 292 289 243 310 301 274 291 276 285 285 281 303 295 285 280 282 286 279 289 272 273 263 251 254 255 258 257 253 258 259 259
223 206 226 253 281 282 289 293 278 279 290 281 274 279 284 280 277 300 293 299 309 301 290 283 277 279 270 273 261 254 251 250 249 247 244 252 257 246
276 288 289 302 282 276 278 287 288 272 272 276 276 272 276 274 296 294 297 292 289 301 303 300 295 277 269 265 266 256 250 251 253 244 246 241 239 247
285 292 281 286 281 277 275 271 269 267 270 273 274 268 279 291 287 278 273 266 273 307 307 306 302 298 286 270 266 260 258 251 251 248 242 240 244 239
284 277 278 273 267 264 262 263 265 260 264 266 265 283 286 280 274 266 265 269 276 292 297 297 294 295 298 285 287 272 269 260 256 259 253 246 244 236
269 269 266 260 260 261 261 261 259 262 274 275 278 279 276 269 267 267 262 263 267 267 264 270 275 270 263 269 277 284 285 279 270 262 253 254 250 247
263 257 261 264 261 261 261 259 261 273 267 267 274 271 266 265 260 258 256 258 256 259 263 261 253 263 261 254 252 253 254 252 251 252 252 250 253 256
264 260 264 255 262 265 262 258 268 263 265 267 267 262 264 261 256 252 254 256 259 261 259 260 257 252 259 251 246 246 252 255 251 251 251 251 251 250

GFSNE_2pvu_pres_117.txt.gz
Presure
143 180 199 185 182 200 179 205 178 192 172 194 206 183 161 176 214 133 181 150 191 208 200 195 207 203 203 216 219 218 241 300 289 338 271 292 276 269
177 173 181 172 184 172 204 183 183 179 202 160 177 195 175 133 197 188 202 196 210 195 200 201 194 192 205 223 226 261 296 299 331 283 277 286 260 266
171 168 169 183 187 190 193 174 182 186 183 160 215 204 197 211 203 210 189 215 196 206 182 212 218 218 230 216 215 299 299 313 307 324 298 280 294 268
199 189 192 171 188 171 193 183 198 181 199 213 187 205 192 208 188 205 208 203 211 205 191 214 216 204 229 230 234 315 271 301 323 318 325 313 270 277
174 191 184 196 202 163 182 197 205 184 177 191 185 191 216 209 196 187 211 200 207 192 204 208 185 214 219 242 295 272 273 321 313 312 353 318 289 270
194 184 175 189 181 178 185 176 183 194 182 185 202 178 201 189 188 208 208 202 213 209 207 198 220 197 237 273 269 299 282 315 306 314 332 352 318 271
177 191 176 191 191 182 180 186 181 203 191 182 195 204 201 175 211 212 180 193 194 213 215 223 205 189 262 243 262 296 290 308 300 310 354 338 327 272
178 186 188 205 222 182 174 187 176 181 201 195 167 190 191 223 222 197 213 214 197 188 199 211 226 252 239 232 297 289 287 296 301 300 339 345 313 278
190 181 195 178 180 165 205 175 198 195 179 219 197 174 193 188 213 227 194 208 197 196 212 239 308 238 300 273 292 291 286 300 296 303 383 335 320 287
180 184 198 201 214 196 189 188 194 198 186 162 203 188 214 204 191 213 191 203 212 214 196 228 229 293 289 298 294 301 313 294 289 298 325 325 321 298
185 212 171 136 179 199 183 190 200 218 211 198 250 200 192 206 202 212 200 212 215 223 215 329 283 301 302 321 326 321 302 289 281 294 310 310 299 292
231 172 184 190 190 202 212 185 192 229 201 193 180 215 191 212 188 216 215 222 233 235 255 297 299 309 340 332 317 306 296 283 274 282 300 286 290 286
213 196 195 209 197 209 218 192 208 200 186 209 213 198 199 200 202 208 209 220 312 286 288 294 293 297 318 312 306 296 287 277 270 277 294 296 280 273
216 207 217 196 180 181 188 223 193 203 216 205 197 214 213 203 198 209 229 207 285 283 287 289 283 296 295 299 302 292 285 273 269 268 278 288 288 281
205 219 200 202 198 196 201 232 195 212 195 182 217 194 223 229 215 229 244 283 283 272 279 279 291 289 280 283 290 289 281 274 265 262 267 273 278 289
210 194 195 219 197 189 190 213 208 222 227 201 249 248 214 232 258 283 256 271 268 279 270 292 293 290 291 284 281 282 277 274 265 257 256 267 263 275
224 196 239 241 248 225 236 226 241 235 222 186 216 237 258 274 276 263 270 273 273 267 295 297 296 297 302 294 284 275 289 273 265 259 255 256 259 262
224 223 202 223 200 232 223 209 190 268 235 276 290 277 273 267 270 266 265 274 266 282 290 282 278 272 275 301 298 281 276 266 271 264 253 251 252 250
276 263 222 285 276 277 283 288 267 279 279 277 271 267 263 261 262 254 262 254 280 286 278 273 266 266 307 304 303 297 286 277 265 264 258 252 248 251
286 287 294 293 291 283 283 278 279 275 269 265 262 261 261 259 259 259 266 278 278 275 269 266 263 264 271 287 293 299 292 292 275 268 262 254 254 248
275 270 272 272 266 272 274 269 267 262 265 263 260 259 259 257 268 269 266 271 273 266 263 260 259 257 259 265 263 276 275 298 287 287 279 269 259 257
274 264 263 270 266 265 260 261 255 260 253 255 251 257 260 266 267 263 264 268 263 263 258 259 254 253 251 256 262 261 253 263 263 256 269 280 278 270
271 264 265 255 261 261 263 252 261 270 250 254 260 252 260 259 262 262 263 265 261 262 260 254 250 252 248 253 255 255 259 255 256 251 254 252 251 252

GFSNE_2pvu_pres_120.txt.gz
Presure
203 168 169 177 207 178 189 194 184 203 194 168 186 199 203 200 208 169 176 194 213 159 216 186 170 180 198 155 187 203 205 216 228 306 337 270 301 320
159 171 172 178 199 186 194 189 190 179 193 191 188 191 192 218 183 182 199 198 162 191 174 206 214 200 201 195 214 205 209 211 222 313 241 290 315 319
199 177 207 182 180 179 174 179 176 188 177 182 198 192 204 196 179 196 203 233 194 207 217 218 205 206 187 205 206 213 187 225 249 326 322 322 319 330
171 185 192 178 169 190 194 203 172 168 208 180 173 170 181 180 198 201 197 213 182 201 174 195 196 204 187 191 185 210 208 234 287 309 308 325 320 310
199 177 181 183 174 173 176 166 184 198 193 173 195 203 186 183 159 226 189 205 198 184 203 185 196 187 197 211 208 213 238 309 313 297 294 315 307 344
183 171 178 176 168 172 186 190 181 181 190 189 198 193 192 190 192 190 196 177 208 194 197 179 216 198 216 194 208 235 254 260 293 301 285 294 312 369
182 178 184 179 191 183 187 203 182 180 191 204 193 185 193 170 195 206 193 162 191 189 200 182 205 212 206 196 194 209 228 307 302 291 289 293 307 359
181 214 194 178 194 170 202 170 179 189 176 190 210 176 196 189 217 166 192 199 193 187 187 204 215 216 205 212 220 220 224 268 295 292 295 309 302 355
183 165 191 161 195 180 192 198 172 143 154 175 190 169 206 178 172 207 193 206 196 211 191 210 205 203 234 299 248 258 316 303 293 299 305 304 297 374
182 129 182 179 203 186 186 187 195 181 175 187 184 191 215 204 181 198 191 192 190 209 199 200 210 230 243 239 226 303 285 301 323 326 309 295 291 348
121 194 183 192 188 194 181 176 188 201 197 200 196 210 184 223 190 195 213 205 209 183 203 201 209 212 249 215 288 298 315 339 332 311 296 286 285 323
199 202 158 196 180 206 168 199 205 193 195 177 178 208 182 196 184 219 191 180 189 209 231 220 234 297 213 272 293 294 315 323 313 295 286 282 274 307
193 185 194 197 210 208 205 197 185 201 176 216 200 196 187 183 214 188 181 217 181 225 194 259 244 214 228 283 276 279 301 308 302 288 282 274 270 298
206 209 208 205 185 188 212 218 189 189 196 180 210 197 211 192 179 184 197 219 219 275 231 203 206 270 279 278 279 276 292 285 294 286 276 269 268 285
210 207 184 219 197 213 205 194 202 194 192 196 196 189 192 183 193 208 242 262 211 210 236 232 280 267 275 281 271 285 284 277 286 280 275 271 263 272
197 205 202 203 197 193 207 200 204 205 190 218 207 220 198 227 231 238 218 228 275 215 254 271 272 273 274 268 288 295 292 286 275 279 271 268 262 258
211 222 214 215 206 211 209 202 209 201 242 220 227 240 225 241 263 257 245 271 261 277 275 271 269 268 270 271 289 283 279 297 279 269 275 267 265 258
225 219 207 216 216 217 214 209 236 241 261 240 281 268 275 290 291 291 279 282 270 268 263 264 263 262 259 286 278 270 265 266 289 281 267 276 262 255
320 250 249 249 246 292 298 295 293 263 281 283 275 285 287 279 277 271 273 262 261 263 265 265 263 267 272 277 271 267 265 275 299 293 278 270 268 263
289 287 287 291 293 292 290 281 280 279 289 296 288 280 280 279 272 264 259 257 259 262 266 272 269 266 271 268 264 261 257 264 292 301 294 279 270 263
294 294 292 290 280 280 285 283 285 283 278 280 277 277 258 264 254 254 249 251 254 266 267 262 257 262 263 262 262 253 253 259 257 266 286 294 283 270
279 286 282 279 268 267 269 271 266 274 265 269 271 261 259 258 261 260 263 253 258 255 257 256 256 260 261 259 258 255 249 250 246 252 256 259 274 289
273 268 277 275 270 263 264 261 259 266 267 266 253 252 260 251 251 255 249 262 265 253 255 257 255 255 257 253 257 254 250 249 248 251 256 255 247 251

GFSNE_2pvu_pres_123.txt.gz
Presure
187 163 149 181 177 196 189 161 173 204 179 163 193 194 194 179 187 201 206 195 185 198 194 208 189 173 194 219 217 194 177 204 173 217 199 278 232 318
166 191 176 195 173 160 173 192 210 195 186 185 177 198 181 189 207 176 174 188 192 181 205 178 195 207 174 188 207 200 194 188 202 219 227 205 236 337
188 186 176 194 204 178 173 190 186 188 215 199 177 184 192 171 177 184 183 187 183 181 198 195 203 219 167 201 179 194 187 213 202 212 208 207 269 332
199 182 189 184 170 186 178 179 196 176 182 170 193 192 172 185 176 197 183 201 171 213 200 184 171 171 196 202 193 187 197 199 195 217 235 261 287 315
177 202 204 192 175 178 190 173 181 176 176 195 169 175 171 195 185 196 190 165 199 170 195 198 204 174 166 191 203 191 194 211 206 236 202 283 328 321
199 194 176 191 183 174 180 180 171 197 179 174 191 182 188 184 182 185 191 171 187 204 183 205 182 184 208 210 187 197 203 197 206 219 211 250 321 318
196 179 200 184 186 193 190 202 175 191 189 177 174 185 182 192 184 180 191 182 193 155 183 181 182 191 218 187 211 197 186 214 229 216 221 236 320 304
190 178 183 184 190 175 171 187 184 193 184 191 194 216 192 172 177 188 190 193 195 191 183 166 206 205 178 206 190 182 204 219 254 206 232 320 303 297
174 190 202 198 208 200 200 180 196 155 188 176 195 181 184 182 187 197 196 189 202 199 186 183 206 200 212 187 204 208 230 218 226 258 316 308 304 312
194 195 178 159 188 189 181 181 201 171 193 181 208 196 195 182 181 181 183 175 190 193 199 220 195 202 181 206 200 228 222 238 278 227 307 316 346 332
200 201 192 186 185 185 188 191 203 185 200 183 195 190 189 202 183 193 207 196 189 179 196 194 194 186 205 219 213 237 230 266 247 286 295 335 336 313
205 186 200 213 206 200 189 189 205 190 175 184 190 181 200 193 197 197 182 195 201 201 199 201 207 208 204 214 228 236 274 256 255 288 285 317 312 299
200 216 194 197 197 197 198 204 189 202 201 197 196 188 191 194 195 204 216 183 201 218 202 212 194 203 233 250 248 265 246 247 276 275 283 300 298 293
208 193 200 198 198 196 188 185 198 215 212 194 183 192 204 200 206 193 211 226 201 211 214 220 213 237 237 245 268 253 265 270 272 280 280 286 291 284
206 207 201 201 199 193 203 202 201 195 202 206 203 199 207 208 215 200 215 207 221 214 222 217 269 262 259 264 239 259 266 278 278 267 277 280 282 279
206 206 215 207 198 201 206 203 213 205 213 204 199 217 201 185 205 209 215 242 251 228 247 301 291 272 259 264 265 276 277 271 276 270 294 284 273 271
224 222 218 216 225 215 217 216 220 212 208 206 203 207 213 213 218 218 236 235 244 264 265 277 274 275 271 266 270 270 267 269 258 281 282 283 283 273
310 241 239 239 235 225 224 222 223 221 222 228 219 216 216 247 254 288 267 300 292 278 281 279 274 267 265 268 272 271 265 267 281 276 265 262 284 276
326 300 299 306 315 305 307 273 263 291 294 281 281 273 289 292 294 300 297 279 285 281 275 273 266 264 258 268 268 268 272 273 275 268 266 258 264 285
319 325 324 317 304 299 286 280 275 273 273 293 290 286 282 292 288 277 288 287 276 275 276 264 262 261 257 263 280 271 263 269 269 264 261 256 260 298
312 311 299 306 300 302 301 300 290 279 272 268 284 290 279 279 283 283 277 275 276 266 256 256 252 264 263 263 260 260 262 263 264 262 258 252 258 256
296 292 304 289 280 281 286 281 288 289 280 276 277 279 280 279 278 274 265 268 256 260 253 259 252 243 271 260 257 259 259 260 258 259 255 254 251 250
306 290 291 289 279 278 280 283 276 277 276 275 276 280 265 266 269 275 266 268 256 262 261 254 247 257 261 265 251 252 260 257 257 254 253 252 247 248

GFSNE_2pvu_pres_126.txt.gz
Presure
212 184 154 158 175 167 183 193 182 196 162 185 192 168 182 181 163 194 180 159 176 194 199 172 185 191 190 201 217 186 176 195 180 223 173 182 210 209
173 195 202 184 183 184 181 168 175 167 185 184 178 177 183 190 191 200 187 183 189 166 183 176 192 181 171 182 205 186 201 218 199 196 190 205 202 211
179 175 193 171 175 174 167 174 196 185 175 196 157 172 181 190 179 172 183 180 201 180 192 172 187 191 204 211 199 207 189 205 168 187 216 208 215 215
173 161 200 201 160 186 163 194 177 179 188 181 199 190 171 188 191 203 183 181 180 193 183 176 198 225 190 183 193 187 180 171 206 209 203 207 214 239
189 178 158 202 190 195 179 183 183 197 201 187 182 178 163 192 201 176 196 172 170 187 197 182 191 194 194 200 196 194 203 217 214 202 206 226 237 243
194 207 181 199 198 204 189 184 183 179 196 191 198 186 175 168 187 164 179 175 173 180 202 174 127 162 139 163 187 198 185 201 198 208 194 222 226 239
178 179 176 182 188 200 202 200 197 212 189 193 199 174 176 139 132 188 174 176 202 200 174 192 177 203 191 195 194 196 195 187 205 214 224 225 246 245
172 201 197 181 208 211 188 179 193 197 190 187 131 185 181 162 172 221 203 190 181 187 202 193 199 183 212 198 200 193 205 203 211 216 228 239 257 264
197 186 193 187 195 187 173 205 178 189 204 155 176 182 188 167 167 197 200 210 201 198 186 193 191 193 198 210 191 190 210 203 218 219 243 245 293 301
185 183 183 185 176 193 188 176 206 190 151 157 190 204 178 176 191 193 201 193 194 189 191 199 200 210 192 202 190 205 201 216 216 236 253 259 306 260
192 190 181 182 201 174 206 181 194 197 204 211 191 198 186 191 197 203 209 193 183 193 195 192 197 189 201 194 209 213 198 226 222 249 247 312 295 268
206 234 212 208 209 209 204 196 191 189 187 186 196 193 197 196 191 195 194 200 200 194 196 192 197 201 195 209 210 215 239 222 241 314 310 291 245 274
184 188 203 203 206 223 216 202 216 213 212 194 192 192 191 192 205 210 202 202 204 201 214 206 208 209 205 214 217 233 225 230 293 303 288 262 250 273
203 197 196 190 201 200 203 201 205 199 195 193 202 196 201 204 205 204 203 205 214 201 202 206 209 200 221 248 229 233 247 285 301 284 257 258 264 276
203 203 206 207 205 201 202 199 216 201 203 205 210 206 204 200 204 205 208 208 214 206 217 221 234 226 235 219 260 249 311 283 273 274 266 259 273 267
241 239 239 227 233 238 219 218 218 224 215 215 216 216 215 213 214 215 216 215 213 222 217 221 232 232 252 253 269 280 287 270 273 267 265 267 264 270
389 379 249 239 234 230 225 225 226 222 218 218 221 220 225 216 215 213 216 219 223 227 251 232 241 252 275 299 289 277 279 269 266 266 269 275 269 265
353 370 359 368 360 247 273 267 229 226 225 230 222 218 213 213 220 225 234 231 251 245 254 257 283 264 290 271 277 269 267 262 265 266 274 264 265 275
352 341 368 345 368 363 359 323 275 265 256 264 263 264 262 264 255 258 254 265 266 299 263 270 290 275 274 283 273 266 265 261 261 263 266 270 277 276
349 341 334 345 326 325 343 342 341 322 303 291 296 294 289 293 282 276 275 274 294 298 288 278 270 277 275 264 268 262 256 261 252 260 268 260 266 270
348 337 335 327 343 318 303 311 306 329 321 316 311 306 299 295 294 288 288 280 280 279 273 273 271 268 262 266 255 253 255 261 255 260 256 261 264 270
344 333 337 331 322 333 303 303 303 297 305 290 306 294 285 288 282 276 271 277 275 271 271 267 267 262 261 259 255 251 248 247 265 266 254 256 257 261
356 336 323 312 307 315 297 292 281 290 292 285 283 281 279 277 280 277 268 265 268 266 258 263 262 261 260 246 262 263 260 257 253 264 253 252 258 258

GFSNE_2pvu_pres_129.txt.gz
Presure
188 162 203 207 210 173 123 180 202 205 171 155 201 159 185 180 189 195 188 180 164 182 206 164 193 175 171 187 201 167 203 210 202 215 215 201 212 219
175 162 154 145 195 191 149 172 208 170 166 164 175 184 202 187 203 188 181 186 174 194 199 189 186 173 184 179 209 188 169 170 179 203 211 195 207 216
146 180 160 160 197 188 180 210 154 174 191 165 169 183 184 178 190 171 181 184 174 193 201 192 174 176 174 173 193 216 209 193 212 172 208 196 182 219
167 183 198 180 187 185 204 182 190 173 163 183 196 178 176 173 180 190 191 192 206 185 177 177 172 170 185 182 191 202 200 212 134 205 185 189 215 204
189 180 184 184 161 156 191 187 191 188 183 164 194 192 184 189 174 181 196 199 192 178 185 135 135 194 168 194 175 208 198 212 202 197 209 206 212 208
201 181 199 183 200 181 181 191 195 187 178 173 175 183 189 182 178 179 189 177 179 161 115 186 146 157 182 198 200 202 201 208 204 199 210 217 209 206
190 169 169 179 187 190 171 182 208 201 197 178 193 195 195 184 185 193 175 173 196 165 199 180 105 183 203 193 200 201 199 213 204 205 213 220 206 211
192 188 163 181 181 189 192 186 160 200 193 205 185 199 202 176 196 169 191 200 194 199 199 197 204 212 208 192 208 204 203 209 203 214 206 214 210 223
185 190 189 182 183 173 188 195 204 197 194 198 171 189 189 187 204 204 210 197 213 214 210 215 202 207 197 210 206 203 198 208 214 207 205 212 213 245
190 199 190 167 182 215 192 211 206 200 194 192 210 187 199 185 210 186 185 195 188 194 189 199 203 198 193 193 211 201 207 206 212 211 202 209 241 236
181 197 208 212 201 206 203 208 192 192 196 182 188 186 190 204 200 220 184 211 194 199 189 197 197 210 203 216 210 214 214 207 205 218 219 216 239 245
233 181 189 231 194 193 191 189 204 206 201 194 196 223 192 184 184 191 191 183 211 201 205 203 222 215 209 209 205 204 210 209 212 199 213 250 248 248
247 208 233 208 192 195 206 192 200 189 183 186 187 206 191 209 206 205 214 221 220 224 224 216 214 205 211 220 217 207 210 222 220 205 242 254 237 260
251 215 214 235 211 209 216 234 226 224 224 214 213 212 216 211 203 206 212 213 213 206 216 207 214 219 212 210 206 215 209 214 233 249 245 266 279 289
259 262 278 342 387 331 243 235 227 227 226 220 221 217 216 217 216 214 220 213 208 218 223 209 221 210 208 212 219 204 212 221 246 242 262 289 267 276
273 219 233 267 254 265 377 297 253 239 229 223 220 219 218 222 226 228 221 225 218 221 216 221 215 219 212 213 219 230 246 238 239 251 266 279 279 273
273 278 313 367 380 376 374 346 336 367 278 245 236 231 233 230 230 227 224 224 221 220 217 214 218 214 248 241 241 242 242 252 264 291 279 277 274 267
267 284 395 392 383 380 356 355 332 343 352 327 285 251 239 236 237 238 235 227 228 225 225 250 240 244 248 240 244 252 254 296 292 280 280 270 266 261
291 361 401 391 384 375 357 349 353 339 345 313 329 304 283 265 254 250 249 250 250 243 245 248 249 246 250 254 253 299 291 276 282 277 266 260 254 260
437 427 424 418 396 373 352 347 333 337 322 327 327 312 322 307 295 282 268 265 255 256 260 261 262 268 306 303 288 276 271 279 270 263 259 253 253 255
449 464 442 420 390 371 361 350 329 343 316 316 320 333 334 309 302 292 294 292 289 287 285 300 294 297 290 281 269 268 268 262 262 259 256 252 250 264
468 478 434 412 392 377 369 332 330 319 314 311 310 308 312 322 320 307 298 288 293 291 297 281 284 272 273 266 265 262 263 260 253 252 251 254 250 251
460 509 436 413 393 360 357 330 327 311 316 324 298 295 319 307 304 293 292 291 288 281 277 278 263 263 263 266 263 259 256 250 250 254 250 245 257 266